M I D A S
Marine Information and Data Acquisition System
Tripno 1489 of the Zeeleeuw from 2008-05-21 06:32:22 to 2008-05-21 16:55:35
Back to CruiseResearch ActivitiesStationsMapUnderway DataData graphs

EquipmentUnitsComment
TimeDGPSUTC
LatitudeDGPSDM.mWGS84
LongitudeDGPSDM.mWGS84
TemperatureSBE03/SBE38deg celciusITS90
ConductivitySBE21S/mITS90
SalinitySBE21 Practical Salinity Units
ChlorophylAChelsea fluorimeterg/lCalibrated in Aceton
Missing or incorrect values are displayed as -999
Sea surface data collected by the RV Zeeleeuw from 2008-05-21 06:09:43 to 2008-05-21 17:03:14
                                                                                    Next 1000 lines
Time Latitude Longitude Temperature Conductivity Salinity ChlorophylA
2008-05-21 06:09:54 51°13.62 2°56.047 17.8184 1.919007 13.983197 -1.662225
2008-05-21 06:09:58 51°13.621 2°56.047 17.8192 1.919007 13.983197 -1.662225
2008-05-21 06:10:03 51°13.621 2°56.047 17.8193 1.919007 13.983482 -1.662225
2008-05-21 06:10:09 51°13.621 2°56.047 17.8203 1.919007 13.983482 -1.662225
2008-05-21 06:10:14 51°13.621 2°56.048 17.8207 1.919007 13.983482 -1.662225
2008-05-21 06:10:18 51°13.621 2°56.047 17.8213 1.919007 13.983767 -1.662225
2008-05-21 06:10:23 51°13.621 2°56.047 17.8215 1.918904 13.983232 -1.662225
2008-05-21 06:10:28 51°13.621 2°56.047 17.8222 1.918904 13.983232 -1.662225
2008-05-21 06:10:34 51°13.621 2°56.047 17.8224 1.918904 13.983232 -1.662225
2008-05-21 06:10:39 51°13.622 2°56.048 17.8228 1.918904 13.983232 -1.662225
2008-05-21 06:10:43 51°13.622 2°56.048 17.8221 1.918904 13.983518 -1.662225
2008-05-21 06:10:48 51°13.622 2°56.048 17.8216 1.918904 13.983518 -1.662225
2008-05-21 06:10:54 51°13.622 2°56.048 17.8213 1.918904 13.983803 -1.662225
2008-05-21 06:10:59 51°13.622 2°56.048 17.8213 1.918904 13.983803 -1.662225
2008-05-21 06:11:03 51°13.622 2°56.048 17.8217 1.918904 13.983803 -1.662225
2008-05-21 06:11:08 51°13.622 2°56.047 17.8213 1.918801 13.983268 -1.662225
2008-05-21 06:11:13 51°13.622 2°56.047 17.8199 1.918801 13.983268 -1.662225
2008-05-21 06:11:19 51°13.622 2°56.047 17.8192 1.918801 13.983268 -1.662225
2008-05-21 06:11:23 51°13.622 2°56.047 17.8179 1.918801 13.983553 -1.662225
2008-05-21 06:11:28 51°13.622 2°56.047 17.8177 1.918801 13.983553 -1.662225
2008-05-21 06:11:33 51°13.622 2°56.047 17.8174 1.918801 13.983553 -1.662225
2008-05-21 06:11:38 51°13.622 2°56.048 17.8163 1.918801 13.983838 -1.662225
2008-05-21 06:11:44 51°13.622 2°56.048 17.8162 1.918698 13.983018 -1.662225
2008-05-21 06:11:49 51°13.621 2°56.048 17.8168 1.918698 13.983303 -1.662225
2008-05-21 06:11:54 51°13.622 2°56.048 17.8173 1.918698 13.983303 -1.662225
2008-05-21 06:11:58 51°13.622 2°56.049 17.8171 1.918698 13.983303 -1.662225
2008-05-21 06:12:04 51°13.622 2°56.049 17.8173 1.918698 13.983303 -1.662225
2008-05-21 06:12:09 51°13.623 2°56.049 17.8178 1.918698 13.983588 -1.662225
2008-05-21 06:12:14 51°13.622 2°56.049 17.8185 1.918698 13.983874 -1.662225
2008-05-21 06:12:18 51°13.622 2°56.049 17.8183 1.918698 13.983588 -1.662225
2008-05-21 06:12:23 51°13.623 2°56.049 17.8177 1.918594 13.983054 -1.662225
2008-05-21 06:12:28 51°13.623 2°56.05 17.8174 1.918594 13.983054 -1.662225
2008-05-21 06:12:34 51°13.623 2°56.049 17.8174 1.918594 13.983339 -1.662225
2008-05-21 06:12:38 51°13.623 2°56.049 17.8181 1.918594 13.983339 -1.662225
2008-05-21 06:12:43 51°13.623 2°56.049 17.8179 1.918594 13.983339 -1.662225
2008-05-21 06:12:48 51°13.623 2°56.049 17.8192 1.918594 13.983339 -1.662225
2008-05-21 06:12:54 51°13.622 2°56.049 17.8197 1.918594 13.983624 -1.662225
2008-05-21 06:12:59 51°13.623 2°56.048 17.8199 1.918594 13.983624 -1.662225
2008-05-21 06:13:03 51°13.622 2°56.048 17.8204 1.918594 13.983909 -1.662225
2008-05-21 06:13:08 51°13.622 2°56.048 17.8206 1.918491 13.983089 -1.662225
2008-05-21 06:13:13 51°13.622 2°56.048 17.8211 1.918491 13.983374 -1.662225
2008-05-21 06:13:19 51°13.623 2°56.048 17.8218 1.918491 13.983374 -1.662225
2008-05-21 06:13:23 51°13.623 2°56.048 17.8218 1.918491 13.983659 -1.662225
2008-05-21 06:13:28 51°13.623 2°56.048 17.8218 1.918491 13.983659 -1.662225
2008-05-21 06:13:33 51°13.623 2°56.048 17.8219 1.918491 13.983659 -1.662225
2008-05-21 06:13:39 51°13.623 2°56.048 17.8216 1.918491 13.983659 -1.662225
2008-05-21 06:13:44 51°13.623 2°56.049 17.8218 1.918388 13.983125 -1.662225
2008-05-21 06:13:49 51°13.623 2°56.049 17.8216 1.918388 13.983125 -1.662225
2008-05-21 06:13:53 51°13.623 2°56.049 17.8192 1.918388 13.98341 -1.662225
2008-05-21 06:13:59 51°13.623 2°56.049 17.8188 1.918388 13.98341 -1.662225
2008-05-21 06:14:04 51°13.623 2°56.049 17.8194 1.918388 13.98341 -1.662225
2008-05-21 06:14:09 51°13.623 2°56.049 17.8199 1.918388 13.983695 -1.662225
2008-05-21 06:14:13 51°13.623 2°56.049 17.8199 1.918388 13.983695 -1.662225
2008-05-21 06:14:18 51°13.623 2°56.048 17.8206 1.918388 13.983695 -1.662225
2008-05-21 06:14:24 51°13.623 2°56.048 17.8209 1.918285 13.98316 -1.662225
2008-05-21 06:14:29 51°13.622 2°56.048 17.8207 1.918285 13.98316 -1.662225
2008-05-21 06:14:34 51°13.622 2°56.047 17.8207 1.918285 13.98316 -1.662225
2008-05-21 06:14:38 51°13.622 2°56.047 17.8204 1.918285 13.98316 -1.662225
2008-05-21 06:14:43 51°13.622 2°56.047 17.8204 1.918285 13.983445 -1.662225
2008-05-21 06:14:49 51°13.622 2°56.047 17.8207 1.918285 13.98373 -1.662225
2008-05-21 06:14:54 51°13.622 2°56.047 17.8214 1.918285 13.98373 -1.662225
2008-05-21 06:14:59 51°13.622 2°56.048 17.8215 1.918285 13.98373 -1.662225
2008-05-21 06:15:03 51°13.623 2°56.048 17.8216 1.918181 13.983196 -1.662225
2008-05-21 06:15:09 51°13.623 2°56.048 17.822 1.918181 13.983196 -1.662225
2008-05-21 06:15:14 51°13.623 2°56.048 17.821 1.918181 13.983196 -1.662225
2008-05-21 06:15:19 51°13.623 2°56.048 17.8209 1.918181 13.983481 -1.662225
2008-05-21 06:15:23 51°13.623 2°56.048 17.8201 1.918181 13.983766 -1.662225
2008-05-21 06:15:28 51°13.623 2°56.048 17.8188 1.918181 13.983766 -1.662225
2008-05-21 06:15:33 51°13.623 2°56.048 17.8164 1.918181 13.983766 -1.662225
2008-05-21 06:15:39 51°13.622 2°56.048 17.8155 1.918181 13.983766 -1.662225
2008-05-21 06:15:43 51°13.622 2°56.047 17.8155 1.918078 13.982946 -1.662225
2008-05-21 06:15:48 51°13.622 2°56.048 17.8143 1.918078 13.983231 -1.662225
2008-05-21 06:15:53 51°13.622 2°56.048 17.8137 1.918078 13.983516 -1.662225
2008-05-21 06:15:59 51°13.622 2°56.048 17.8143 1.918078 13.983516 -1.662225
2008-05-21 06:16:04 51°13.622 2°56.047 17.8142 1.918078 13.983516 -1.662225
2008-05-21 06:16:08 51°13.622 2°56.047 17.8153 1.918078 13.983802 -1.662225
2008-05-21 06:16:13 51°13.623 2°56.047 17.8154 1.918078 13.983802 -1.662225
2008-05-21 06:16:18 51°13.623 2°56.048 17.8162 1.917975 13.983267 -1.662225
2008-05-21 06:16:23 51°13.623 2°56.048 17.8165 1.917975 13.983267 -1.662225
2008-05-21 06:16:28 51°13.623 2°56.048 17.8175 1.917975 13.983267 -1.662225
2008-05-21 06:16:34 51°13.623 2°56.048 17.8177 1.917975 13.983552 -1.662225
2008-05-21 06:16:38 51°13.623 2°56.048 17.8179 1.917975 13.983837 -1.662225
2008-05-21 06:16:43 51°13.623 2°56.048 17.8183 1.917975 13.983837 -1.662225
2008-05-21 06:16:49 51°13.623 2°56.048 17.8188 1.917975 13.983837 -1.662225
2008-05-21 06:16:54 51°13.623 2°56.048 17.8191 1.917872 13.983017 -1.662225
2008-05-21 06:16:59 51°13.623 2°56.048 17.8192 1.917872 13.983017 -1.662225
2008-05-21 06:17:03 51°13.623 2°56.048 17.8198 1.917872 13.983302 -1.662225
2008-05-21 06:17:09 51°13.623 2°56.048 17.8199 1.917872 13.983302 -1.662225
2008-05-21 06:17:14 51°13.623 2°56.048 17.8193 1.917872 13.983587 -1.662225
2008-05-21 06:17:19 51°13.623 2°56.048 17.8177 1.917872 13.983587 -1.662225
2008-05-21 06:17:23 51°13.624 2°56.048 17.8172 1.917872 13.983587 -1.662225
2008-05-21 06:17:28 51°13.624 2°56.048 17.8161 1.917872 13.983587 -1.662225
2008-05-21 06:17:34 51°13.624 2°56.048 17.8146 1.917872 13.983873 -1.662225
2008-05-21 06:17:39 51°13.624 2°56.048 17.8129 1.917768 13.983052 -1.662225
2008-05-21 06:17:44 51°13.624 2°56.048 17.8122 1.917768 13.983338 -1.662225
2008-05-21 06:17:48 51°13.624 2°56.048 17.8123 1.917768 13.983338 -1.662225
2008-05-21 06:17:53 51°13.624 2°56.048 17.8135 1.917768 13.983338 -1.662225
2008-05-21 06:17:59 51°13.624 2°56.048 17.8149 1.917768 13.983338 -1.662225
2008-05-21 06:18:03 51°13.624 2°56.048 17.816 1.917768 13.983623 -1.662225
2008-05-21 06:18:08 51°13.624 2°56.048 17.8172 1.917768 13.983623 -1.662225
2008-05-21 06:18:13 51°13.624 2°56.048 17.8178 1.917768 13.983908 -1.662225
2008-05-21 06:18:19 51°13.624 2°56.048 17.8184 1.917665 13.983088 -1.662225
2008-05-21 06:18:24 51°13.624 2°56.048 17.8179 1.917665 13.983088 -1.662225
2008-05-21 06:18:29 51°13.624 2°56.048 17.8185 1.917665 13.983088 -1.662225
2008-05-21 06:18:34 51°13.624 2°56.048 17.8192 1.917665 13.983373 -1.662225
2008-05-21 06:18:38 51°13.624 2°56.048 17.8203 1.917665 13.983373 -1.662225
2008-05-21 06:18:44 51°13.624 2°56.048 17.8213 1.917665 13.983659 -1.662225
2008-05-21 06:18:49 51°13.624 2°56.048 17.8218 1.917665 13.983659 -1.662225
2008-05-21 06:18:53 51°13.624 2°56.048 17.8228 1.917562 13.983124 -1.662225
2008-05-21 06:18:58 51°13.624 2°56.048 17.8233 1.917562 13.983124 -1.662225
2008-05-21 06:19:03 51°13.623 2°56.047 17.8238 1.917562 13.983124 -1.662225
2008-05-21 06:19:09 51°13.623 2°56.047 17.8245 1.917562 13.983124 -1.662225
2008-05-21 06:19:14 51°13.623 2°56.047 17.8255 1.917562 13.983409 -1.662225
2008-05-21 06:19:18 51°13.623 2°56.047 17.826 1.917562 13.983409 -1.662225
2008-05-21 06:19:23 51°13.623 2°56.047 17.8262 1.917562 13.983409 -1.662225
2008-05-21 06:19:28 51°13.623 2°56.047 17.8269 1.917562 13.983694 -1.662225
2008-05-21 06:19:34 51°13.623 2°56.047 17.8279 1.917562 13.983694 -1.662225
2008-05-21 06:19:39 51°13.623 2°56.047 17.8273 1.917459 13.982874 -1.662225
2008-05-21 06:19:43 51°13.623 2°56.047 17.8273 1.917459 13.983159 -1.662225
2008-05-21 06:19:48 51°13.623 2°56.047 17.8279 1.917459 13.983159 -1.662225
2008-05-21 06:19:54 51°13.623 2°56.047 17.8274 1.917459 13.983445 -1.662225
2008-05-21 06:19:59 51°13.623 2°56.047 17.8258 1.917459 13.983445 -1.662225
2008-05-21 06:20:03 51°13.623 2°56.047 17.8262 1.917459 13.983445 -1.662225
2008-05-21 06:20:08 51°13.623 2°56.047 17.826 1.917459 13.98373 -1.662225
2008-05-21 06:20:13 51°13.623 2°56.047 17.8257 1.917355 13.982624 -1.662225
2008-05-21 06:20:19 51°13.623 2°56.047 17.8249 1.917355 13.982909 -1.662225
2008-05-21 06:20:24 51°13.623 2°56.047 17.8246 1.917355 13.983195 -1.662225
2008-05-21 06:20:29 51°13.623 2°56.047 17.8246 1.917355 13.983195 -1.662225
2008-05-21 06:20:33 51°13.624 2°56.047 17.8243 1.917355 13.983195 -1.662225
2008-05-21 06:20:39 51°13.623 2°56.047 17.8242 1.917355 13.983195 -1.662225
2008-05-21 06:20:44 51°13.623 2°56.047 17.8246 1.917355 13.98348 -1.662225
2008-05-21 06:20:49 51°13.623 2°56.047 17.8247 1.917355 13.98348 -1.662225
2008-05-21 06:20:53 51°13.623 2°56.047 17.8258 1.917252 13.98266 -1.662225
2008-05-21 06:20:58 51°13.623 2°56.047 17.8259 1.917252 13.98266 -1.662225
2008-05-21 06:21:04 51°13.623 2°56.047 17.8274 1.917252 13.982945 -1.662225
2008-05-21 06:21:09 51°13.623 2°56.047 17.8279 1.917252 13.982945 -1.662225
2008-05-21 06:21:14 51°13.623 2°56.047 17.8287 1.917252 13.983231 -1.662225
2008-05-21 06:21:18 51°13.623 2°56.047 17.8296 1.917252 13.983231 -1.662225
2008-05-21 06:21:23 51°13.623 2°56.047 17.8299 1.917252 13.983231 -1.662225
2008-05-21 06:21:29 51°13.623 2°56.047 17.831 1.917252 13.983231 -1.662225
2008-05-21 06:21:34 51°13.623 2°56.047 17.8316 1.917149 13.982695 -1.662225
2008-05-21 06:21:39 51°13.623 2°56.047 17.8321 1.917149 13.982695 -1.662225
2008-05-21 06:21:43 51°13.623 2°56.047 17.8325 1.917149 13.982695 -1.662225
2008-05-21 06:21:48 51°13.623 2°56.047 17.8326 1.917149 13.982981 -1.662225
2008-05-21 06:21:54 51°13.623 2°56.047 17.8328 1.917149 13.982981 -1.662225
2008-05-21 06:21:59 51°13.623 2°56.047 17.8329 1.917149 13.982981 -1.662225
2008-05-21 06:22:03 51°13.623 2°56.047 17.8327 1.917149 13.983266 -1.662225
2008-05-21 06:22:08 51°13.623 2°56.047 17.8324 1.917149 13.983266 -1.662225
2008-05-21 06:22:14 51°13.623 2°56.047 17.8324 1.917046 13.982446 -1.662225
2008-05-21 06:22:19 51°13.623 2°56.047 17.8324 1.917046 13.982731 -1.662225
2008-05-21 06:22:24 51°13.623 2°56.047 17.8323 1.917046 13.982731 -1.662225
2008-05-21 06:22:29 51°13.623 2°56.047 17.8324 1.917046 13.982731 -1.662225
2008-05-21 06:22:33 51°13.623 2°56.047 17.8328 1.917046 13.982731 -1.662225
2008-05-21 06:22:39 51°13.623 2°56.047 17.8325 1.917046 13.983016 -1.662225
2008-05-21 06:22:44 51°13.623 2°56.048 17.833 1.917046 13.983016 -1.662225
2008-05-21 06:22:49 51°13.623 2°56.048 17.8344 1.917046 13.983302 -1.662225
2008-05-21 06:22:53 51°13.623 2°56.047 17.8354 1.917046 13.983302 -1.662225
2008-05-21 06:22:58 51°13.623 2°56.047 17.8354 1.917046 13.983302 -1.662225
2008-05-21 06:23:04 51°13.623 2°56.047 17.8358 1.916942 13.982767 -1.662225
2008-05-21 06:23:09 51°13.623 2°56.047 17.8363 1.916942 13.982767 -1.662225
2008-05-21 06:23:13 51°13.623 2°56.047 17.8365 1.916942 13.983052 -1.662225
2008-05-21 06:23:18 51°13.623 2°56.047 17.8364 1.916942 13.983052 -1.662225
2008-05-21 06:23:24 51°13.623 2°56.047 17.837 1.916942 13.983052 -1.662225
2008-05-21 06:23:29 51°13.623 2°56.047 17.8373 1.916942 13.983052 -1.662225
2008-05-21 06:23:34 51°13.623 2°56.047 17.8374 1.916942 13.983052 -1.662225
2008-05-21 06:23:38 51°13.623 2°56.047 17.8371 1.916839 13.982517 -1.662225
2008-05-21 06:23:43 51°13.623 2°56.047 17.8368 1.916839 13.982802 -1.662225
2008-05-21 06:23:49 51°13.623 2°56.047 17.8365 1.916839 13.982802 -1.662225
2008-05-21 06:23:54 51°13.623 2°56.048 17.8358 1.916839 13.982802 -1.662225
2008-05-21 06:23:58 51°13.623 2°56.048 17.835 1.916839 13.982802 -1.662225
2008-05-21 06:24:03 51°13.623 2°56.048 17.8336 1.916839 13.982802 -1.662225
2008-05-21 06:24:08 51°13.623 2°56.048 17.8318 1.916839 13.983088 -1.662225
2008-05-21 06:24:14 51°13.623 2°56.049 17.8307 1.916839 13.983088 -1.662225
2008-05-21 06:24:19 51°13.623 2°56.049 17.8308 1.916736 13.982267 -1.662225
2008-05-21 06:24:24 51°13.624 2°56.049 17.8302 1.916736 13.982553 -1.662225
2008-05-21 06:24:28 51°13.623 2°56.049 17.8284 1.916736 13.982553 -1.662225
2008-05-21 06:24:34 51°13.623 2°56.049 17.8285 1.916736 13.982553 -1.662225
2008-05-21 06:24:39 51°13.623 2°56.049 17.8282 1.916736 13.982838 -1.662225
2008-05-21 06:24:43 51°13.623 2°56.049 17.8296 1.916736 13.982838 -1.662225
2008-05-21 06:24:48 51°13.623 2°56.049 17.8307 1.916736 13.983124 -1.662225
2008-05-21 06:24:53 51°13.623 2°56.049 17.8318 1.916736 13.983124 -1.662225
2008-05-21 06:24:59 51°13.623 2°56.049 17.8334 1.916633 13.982303 -1.662225
2008-05-21 06:25:04 51°13.623 2°56.049 17.8344 1.916633 13.982303 -1.662225
2008-05-21 06:25:08 51°13.623 2°56.049 17.8352 1.916633 13.982588 -1.662225
2008-05-21 06:25:13 51°13.623 2°56.049 17.8364 1.916633 13.982588 -1.662225
2008-05-21 06:25:18 51°13.623 2°56.049 17.8379 1.916633 13.982588 -1.662225
2008-05-21 06:25:24 51°13.623 2°56.049 17.839 1.916633 13.982874 -1.662225
2008-05-21 06:25:29 51°13.623 2°56.049 17.8396 1.916633 13.982874 -1.662225
2008-05-21 06:25:34 51°13.623 2°56.049 17.8402 1.916633 13.983159 -1.662225
2008-05-21 06:25:38 51°13.624 2°56.049 17.8411 1.916633 13.983159 -1.662225
2008-05-21 06:25:43 51°13.624 2°56.049 17.8417 1.916529 13.982624 -1.662225
2008-05-21 06:25:49 51°13.624 2°56.049 17.8423 1.916529 13.982624 -1.662225
2008-05-21 06:25:54 51°13.624 2°56.049 17.8417 1.916529 13.982624 -1.662225
2008-05-21 06:25:58 51°13.624 2°56.049 17.8412 1.916529 13.982624 -1.662225
2008-05-21 06:26:03 51°13.624 2°56.049 17.8413 1.916529 13.98291 -1.662225
2008-05-21 06:26:09 51°13.624 2°56.049 17.8418 1.916529 13.98291 -1.662225
2008-05-21 06:26:14 51°13.624 2°56.049 17.8414 1.916529 13.983195 -1.662225
2008-05-21 06:26:19 51°13.624 2°56.05 17.8418 1.916529 13.983195 -1.662225
2008-05-21 06:26:23 51°13.624 2°56.05 17.8409 1.916426 13.98266 -1.662225
2008-05-21 06:26:29 51°13.624 2°56.05 17.8411 1.916426 13.98266 -1.662225
2008-05-21 06:26:34 51°13.624 2°56.05 17.8408 1.916426 13.98266 -1.662225
2008-05-21 06:26:39 51°13.624 2°56.05 17.8412 1.916426 13.98266 -1.662225
2008-05-21 06:26:43 51°13.624 2°56.05 17.8407 1.916426 13.982945 -1.662225
2008-05-21 06:26:48 51°13.624 2°56.05 17.8409 1.916426 13.982945 -1.662225
2008-05-21 06:26:54 51°13.624 2°56.05 17.8405 1.916426 13.983231 -1.662225
2008-05-21 06:26:59 51°13.624 2°56.049 17.8424 1.916426 13.983231 -1.662225
2008-05-21 06:27:03 51°13.624 2°56.049 17.8423 1.916426 13.983231 -1.662225
2008-05-21 06:27:08 51°13.624 2°56.05 17.8435 1.916426 13.983231 -1.662225
2008-05-21 06:27:13 51°13.624 2°56.049 17.8437 1.916323 13.982696 -1.662225
2008-05-21 06:27:19 51°13.624 2°56.049 17.8434 1.916323 13.982696 -1.662225
2008-05-21 06:27:24 51°13.624 2°56.049 17.8447 1.916323 13.982981 -1.662225
2008-05-21 06:27:29 51°13.624 2°56.049 17.8441 1.916323 13.982981 -1.662225
2008-05-21 06:27:34 51°13.624 2°56.049 17.8448 1.916323 13.982981 -1.662225
2008-05-21 06:27:38 51°13.624 2°56.049 17.8445 1.916323 13.982981 -1.662225
2008-05-21 06:27:44 51°13.624 2°56.049 17.8443 1.916323 13.983267 -1.662225
2008-05-21 06:27:48 51°13.624 2°56.049 17.8449 1.91622 13.982446 -1.662225
2008-05-21 06:27:54 51°13.624 2°56.049 17.8447 1.91622 13.982731 -1.662225
2008-05-21 06:27:58 51°13.624 2°56.048 17.8451 1.91622 13.982731 -1.662225
2008-05-21 06:28:03 51°13.624 2°56.048 17.8455 1.91622 13.982731 -1.662225
2008-05-21 06:28:09 51°13.624 2°56.048 17.8455 1.91622 13.982731 -1.662225
2008-05-21 06:28:14 51°13.624 2°56.048 17.8464 1.91622 13.982731 -1.662225
2008-05-21 06:28:18 51°13.623 2°56.048 17.847 1.91622 13.983017 -1.662225
2008-05-21 06:28:23 51°13.624 2°56.048 17.847 1.91622 13.983017 -1.662225
2008-05-21 06:28:29 51°13.624 2°56.048 17.8471 1.91622 13.983017 -1.662225
2008-05-21 06:28:34 51°13.624 2°56.048 17.847 1.91622 13.983303 -1.662225
2008-05-21 06:28:39 51°13.624 2°56.048 17.8472 1.916116 13.982482 -1.662225
2008-05-21 06:28:43 51°13.624 2°56.048 17.8474 1.916116 13.982482 -1.662225
2008-05-21 06:28:48 51°13.623 2°56.048 17.8476 1.916116 13.982482 -1.662225
2008-05-21 06:28:54 51°13.623 2°56.048 17.8469 1.916116 13.982767 -1.662225
2008-05-21 06:28:59 51°13.623 2°56.048 17.8474 1.916116 13.982767 -1.662225
2008-05-21 06:29:03 51°13.623 2°56.048 17.8489 1.916116 13.982767 -1.662225
2008-05-21 06:29:08 51°13.623 2°56.048 17.849 1.916116 13.983053 -1.662225
2008-05-21 06:29:13 51°13.623 2°56.048 17.8482 1.916013 13.982232 -1.662225
2008-05-21 06:29:19 51°13.623 2°56.049 17.8492 1.916013 13.982232 -1.662225
2008-05-21 06:29:23 51°13.623 2°56.049 17.8531 1.916013 13.982517 -1.662225
2008-05-21 06:29:28 51°13.623 2°56.049 17.8552 1.916013 13.982517 -1.662225
2008-05-21 06:29:33 51°13.623 2°56.049 17.855 1.916013 13.982517 -1.662225
2008-05-21 06:29:39 51°13.623 2°56.048 17.8537 1.916013 13.982517 -1.662225
2008-05-21 06:29:44 51°13.623 2°56.048 17.855 1.916013 13.982803 -1.662225
2008-05-21 06:29:48 51°13.623 2°56.049 17.853 1.916013 13.982803 -1.662225
2008-05-21 06:29:53 51°13.623 2°56.049 17.8515 1.916013 13.982803 -1.662225
2008-05-21 06:29:58 51°13.623 2°56.049 17.8494 1.916013 13.982803 -1.662225
2008-05-21 06:30:03 51°13.622 2°56.049 17.8493 1.91591 13.982267 -1.662225
2008-05-21 06:30:09 51°13.621 2°56.05 17.8498 1.91591 13.982267 -1.662225
2008-05-21 06:30:13 51°13.622 2°56.049 17.8499 1.91591 13.982267 -1.662225
2008-05-21 06:30:18 51°13.622 2°56.049 17.8486 1.91591 13.982267 -1.662225
2008-05-21 06:30:23 51°13.622 2°56.049 17.8418 1.91591 13.982267 -1.662225
2008-05-21 06:30:29 51°13.622 2°56.049 17.8353 1.91591 13.982267 -1.662225
2008-05-21 06:30:34 51°13.622 2°56.048 17.8347 1.91591 13.982267 -1.662225
2008-05-21 06:30:39 51°13.622 2°56.048 17.8372 1.91591 13.982553 -1.662225
2008-05-21 06:30:43 51°13.622 2°56.048 17.8407 1.91591 13.982553 -1.662225
2008-05-21 06:30:49 51°13.622 2°56.047 17.8421 1.915807 13.981732 -1.662225
2008-05-21 06:30:54 51°13.623 2°56.046 17.8403 1.915807 13.981732 -1.662225
2008-05-21 06:30:59 51°13.623 2°56.045 17.8381 1.915807 13.981732 -1.662225
2008-05-21 06:31:03 51°13.623 2°56.044 17.8342 1.915807 13.981732 -1.662225
2008-05-21 06:31:08 51°13.623 2°56.043 17.8236 1.915807 13.981732 -1.662225
2008-05-21 06:31:14 51°13.624 2°56.041 17.8396 1.915807 13.981732 -1.662225
2008-05-21 06:31:19 51°13.625 2°56.039 17.8306 1.915807 13.982018 -1.662225
2008-05-21 06:31:24 51°13.625 2°56.037 17.8472 1.915807 13.982018 -1.662225
2008-05-21 06:31:28 51°13.626 2°56.035 17.8487 1.915807 13.982018 -1.662225
2008-05-21 06:31:33 51°13.626 2°56.033 17.8479 1.915807 13.982303 -1.662225
2008-05-21 06:31:39 51°13.627 2°56.03 17.8468 1.915703 13.981482 -1.662225
2008-05-21 06:31:43 51°13.628 2°56.028 17.8486 1.915703 13.981482 -1.662225
2008-05-21 06:31:48 51°13.629 2°56.026 17.8434 1.915703 13.981768 -1.662225
2008-05-21 06:31:53 51°13.63 2°56.023 17.8381 1.915703 13.981768 -1.662225
2008-05-21 06:31:59 51°13.631 2°56.02 17.8341 1.915703 13.981768 -1.662225
2008-05-21 06:32:03 51°13.632 2°56.018 17.83 1.915703 13.981768 -1.662225
2008-05-21 06:32:08 51°13.633 2°56.015 17.8344 1.915703 13.982053 -1.662225
2008-05-21 06:32:13 51°13.634 2°56.011 17.8232 1.915703 13.982053 -1.662225
2008-05-21 06:32:18 51°13.635 2°56.008 17.8013 1.915703 13.982053 -1.662225
2008-05-21 06:32:23 51°13.636 2°56.003 17.8218 1.915703 13.982053 -1.662225
2008-05-21 06:32:28 51°13.638 2°55.999 17.8218 1.915703 13.982053 -1.662225
2008-05-21 06:32:34 51°13.64 2°55.993 17.8464 1.9156 13.981232 -1.662225
2008-05-21 06:32:39 51°13.641 2°55.988 17.8453 1.9156 13.981518 -1.662225
2008-05-21 06:32:43 51°13.642 2°55.984 17.8439 1.9156 13.981518 -1.662225
2008-05-21 06:32:49 51°13.644 2°55.977 17.8478 1.9156 13.981518 -1.662225
2008-05-21 06:32:54 51°13.646 2°55.971 17.8517 1.9156 13.981804 -1.662225
2008-05-21 06:32:59 51°13.648 2°55.965 17.8516 1.9156 13.981804 -1.662225
2008-05-21 06:33:03 51°13.649 2°55.96 17.8559 1.9156 13.981804 -1.662225
2008-05-21 06:33:09 51°13.651 2°55.952 17.8575 1.9156 13.981804 -1.662225
2008-05-21 06:33:14 51°13.653 2°55.945 17.864 1.9156 13.982089 -1.662225
2008-05-21 06:33:19 51°13.655 2°55.938 17.8654 1.9156 13.982089 -1.662225
2008-05-21 06:33:23 51°13.657 2°55.933 17.8674 1.9156 13.982089 -1.662225
2008-05-21 06:33:28 51°13.659 2°55.926 17.847 1.9156 13.982089 -1.662225
2008-05-21 06:33:34 51°13.661 2°55.917 17.8409 1.9156 13.982375 -1.662225
2008-05-21 06:33:39 51°13.663 2°55.909 17.8429 1.915497 13.981554 -1.662225
2008-05-21 06:33:44 51°13.665 2°55.902 17.8532 1.915497 13.981554 -1.662225
2008-05-21 06:33:49 51°13.668 2°55.894 17.8504 1.915497 13.981839 -1.662225
2008-05-21 06:33:53 51°13.669 2°55.888 17.8506 1.915497 13.981839 -1.662225
2008-05-21 06:33:59 51°13.671 2°55.878 17.8526 1.915497 13.981839 -1.662225
2008-05-21 06:34:04 51°13.673 2°55.87 17.8546 1.915497 13.981839 -1.662225
2008-05-21 06:34:09 51°13.675 2°55.862 17.8546 1.915497 13.982125 -1.662225
2008-05-21 06:34:13 51°13.676 2°55.856 17.8564 1.915497 13.982125 -1.662225
2008-05-21 06:34:19 51°13.678 2°55.846 17.8579 1.915497 13.982125 -1.662225
2008-05-21 06:34:24 51°13.679 2°55.839 17.8578 1.915497 13.982125 -1.662225
2008-05-21 06:34:29 51°13.68 2°55.831 17.8577 1.915497 13.982125 -1.662225
2008-05-21 06:34:34 51°13.681 2°55.823 17.8558 1.915394 13.98159 -1.662225
2008-05-21 06:34:38 51°13.682 2°55.817 17.8545 1.915394 13.98159 -1.662225
2008-05-21 06:34:44 51°13.682 2°55.808 17.8552 1.915394 13.98159 -1.662225
2008-05-21 06:34:49 51°13.683 2°55.8 17.8544 1.915394 13.98159 -1.662225
2008-05-21 06:34:54 51°13.683 2°55.793 17.8578 1.915394 13.98159 -1.662225
2008-05-21 06:34:58 51°13.684 2°55.787 17.8575 1.915394 13.98159 -1.662225
2008-05-21 06:35:04 51°13.684 2°55.779 17.8575 1.915394 13.98159 -1.662225
2008-05-21 06:35:09 51°13.684 2°55.773 17.8566 1.915394 13.98159 -1.662225
2008-05-21 06:35:14 51°13.684 2°55.767 17.8579 1.915394 13.98159 -1.662225
2008-05-21 06:35:18 51°13.684 2°55.763 17.8587 1.915394 13.981875 -1.662225
2008-05-21 06:35:23 51°13.685 2°55.76 17.8672 1.915394 13.981875 -1.662225
2008-05-21 06:35:28 51°13.685 2°55.758 17.8783 1.915394 13.981875 -1.662225
2008-05-21 06:35:34 51°13.685 2°55.756 17.8788 1.915394 13.982161 -1.662225
2008-05-21 06:35:38 51°13.686 2°55.756 17.8766 1.915394 13.982733 -1.662225
2008-05-21 06:35:43 51°13.687 2°55.756 17.8552 1.91529 13.981911 -1.662225
2008-05-21 06:35:48 51°13.688 2°55.757 17.8511 1.91529 13.981911 -1.662225
2008-05-21 06:35:54 51°13.689 2°55.758 17.8354 1.91529 13.981625 -1.662225
2008-05-21 06:35:59 51°13.689 2°55.758 17.7969 1.91529 13.981625 -1.662225
2008-05-21 06:36:03 51°13.69 2°55.757 17.8052 1.91529 13.981625 -1.662225
2008-05-21 06:36:08 51°13.689 2°55.756 17.7509 1.91529 13.981625 -1.662225
2008-05-21 06:36:13 51°13.689 2°55.754 17.7784 1.91529 13.98134 -1.662225
2008-05-21 06:36:19 51°13.687 2°55.751 17.8057 1.91529 13.981625 -1.662225
2008-05-21 06:36:23 51°13.686 2°55.749 17.8259 1.91529 13.981911 -1.662225
2008-05-21 06:36:28 51°13.685 2°55.747 17.8366 1.91529 13.981911 -1.662225
2008-05-21 06:36:33 51°13.683 2°55.745 17.841 1.91529 13.981911 -1.662225
2008-05-21 06:36:39 51°13.683 2°55.742 17.842 1.91529 13.982197 -1.662225
2008-05-21 06:36:44 51°13.682 2°55.741 17.8654 1.91529 13.982483 -1.662225
2008-05-21 06:36:49 51°13.683 2°55.741 17.8871 1.91529 13.982769 -1.662225
2008-05-21 06:36:54 51°13.685 2°55.741 17.8985 1.915394 13.984447 -1.662225
2008-05-21 06:36:58 51°13.687 2°55.741 17.904 1.915394 13.984447 -1.662225
2008-05-21 06:37:04 51°13.692 2°55.74 17.9118 1.915394 13.984733 -1.662225
2008-05-21 06:37:08 51°13.695 2°55.738 17.8855 1.915394 13.985305 -1.662225
2008-05-21 06:37:14 51°13.7 2°55.735 17.8584 1.915394 13.985019 -1.697049
2008-05-21 06:37:19 51°13.704 2°55.733 17.8648 1.91529 13.983912 -1.662225
2008-05-21 06:37:23 51°13.708 2°55.73 17.8464 1.91529 13.983626 -1.662225
2008-05-21 06:37:28 51°13.713 2°55.726 17.8427 1.91529 13.983626 -1.662225
2008-05-21 06:37:33 51°13.717 2°55.722 17.8088 1.91529 13.98334 -1.697049
2008-05-21 06:37:39 51°13.723 2°55.718 17.8054 1.91529 13.983054 -1.662225
2008-05-21 06:37:43 51°13.727 2°55.714 17.7899 1.91529 13.982769 -1.697049
2008-05-21 06:37:48 51°13.732 2°55.71 17.7899 1.915187 13.981947 -1.662225
2008-05-21 06:37:54 51°13.738 2°55.705 17.7836 1.915187 13.981661 -1.662225
2008-05-21 06:37:58 51°13.742 2°55.702 17.7918 1.915187 13.981661 -1.662225
2008-05-21 06:38:03 51°13.747 2°55.698 17.7949 1.915187 13.981661 -1.662225
2008-05-21 06:38:08 51°13.753 2°55.694 17.7984 1.915187 13.981661 -1.662225
2008-05-21 06:38:14 51°13.76 2°55.689 17.8015 1.915187 13.981947 -1.662225
2008-05-21 06:38:19 51°13.765 2°55.685 17.8051 1.915187 13.981947 -1.662225
2008-05-21 06:38:23 51°13.77 2°55.682 17.8102 1.915187 13.981947 -1.662225
2008-05-21 06:38:28 51°13.776 2°55.677 17.8146 1.915187 13.981947 -1.662225
2008-05-21 06:38:33 51°13.781 2°55.673 17.8194 1.915187 13.982233 -1.662225
2008-05-21 06:38:39 51°13.788 2°55.668 17.8218 1.915187 13.982233 -1.662225
2008-05-21 06:38:43 51°13.793 2°55.664 17.8249 1.915187 13.982519 -1.662225
2008-05-21 06:38:48 51°13.799 2°55.659 17.8272 1.915187 13.982519 -1.662225
2008-05-21 06:38:53 51°13.805 2°55.654 17.8291 1.915187 13.982805 -1.662225
2008-05-21 06:38:58 51°13.811 2°55.649 17.8312 1.915187 13.982805 -1.662225
2008-05-21 06:39:03 51°13.817 2°55.644 17.8316 1.915084 13.981983 -1.662225
2008-05-21 06:39:08 51°13.824 2°55.64 17.8332 1.915084 13.982269 -1.662225
2008-05-21 06:39:13 51°13.83 2°55.635 17.8349 1.915084 13.982269 -1.662225
2008-05-21 06:39:18 51°13.836 2°55.63 17.8339 1.915084 13.982269 -1.662225
2008-05-21 06:39:23 51°13.842 2°55.625 17.8357 1.915084 13.982555 -1.697049
2008-05-21 06:39:28 51°13.848 2°55.62 17.838 1.915084 13.982555 -1.697049
2008-05-21 06:39:33 51°13.855 2°55.615 17.8383 1.915084 13.982555 -1.662225
2008-05-21 06:39:38 51°13.861 2°55.61 17.8405 1.915084 13.98284 -1.662225
2008-05-21 06:39:43 51°13.868 2°55.605 17.8396 1.915084 13.983126 -1.662225
2008-05-21 06:39:48 51°13.874 2°55.6 17.8393 1.915084 13.983126 -1.662225
2008-05-21 06:39:54 51°13.882 2°55.594 17.8379 1.915084 13.983412 -1.662225
2008-05-21 06:39:58 51°13.888 2°55.59 17.8354 1.915084 13.983412 -1.662225
2008-05-21 06:40:03 51°13.894 2°55.585 17.8297 1.915084 13.983412 -1.662225
2008-05-21 06:40:08 51°13.901 2°55.58 17.8214 1.915084 13.983412 -1.662225
2008-05-21 06:40:14 51°13.909 2°55.575 17.8153 1.915084 13.983412 -1.697049
2008-05-21 06:40:19 51°13.915 2°55.57 17.8132 1.914981 13.982877 -1.662225
2008-05-21 06:40:23 51°13.921 2°55.566 17.8213 1.914981 13.982877 -1.662225
2008-05-21 06:40:28 51°13.927 2°55.561 17.8253 1.914981 13.982877 -1.662225
2008-05-21 06:40:33 51°13.934 2°55.556 17.8282 1.914981 13.983162 -1.662225
2008-05-21 06:40:38 51°13.941 2°55.551 17.8305 1.914981 13.983162 -1.662225
2008-05-21 06:40:43 51°13.947 2°55.546 17.8327 1.914981 13.983162 -1.662225
2008-05-21 06:40:48 51°13.953 2°55.541 17.8338 1.914981 13.983448 -1.662225
2008-05-21 06:40:53 51°13.96 2°55.536 17.8373 1.914981 13.983734 -1.662225
2008-05-21 06:40:58 51°13.966 2°55.53 17.8395 1.914981 13.983734 -1.662225
2008-05-21 06:41:03 51°13.973 2°55.525 17.8422 1.914981 13.983734 -1.662225
2008-05-21 06:41:08 51°13.98 2°55.52 17.8429 1.914981 13.98402 -1.662225
2008-05-21 06:41:13 51°13.986 2°55.515 17.8427 1.914981 13.98402 -1.662225
2008-05-21 06:41:18 51°13.993 2°55.51 17.8431 1.914981 13.984306 -1.662225
2008-05-21 06:41:23 51°13.999 2°55.505 17.8432 1.914981 13.984306 -1.662225
2008-05-21 06:41:28 51°14.006 2°55.5 17.8443 1.914981 13.984306 -1.662225
2008-05-21 06:41:33 51°14.012 2°55.495 17.8455 1.914877 13.98377 -1.662225
2008-05-21 06:41:38 51°14.019 2°55.49 17.8436 1.914877 13.98377 -1.662225
2008-05-21 06:41:43 51°14.025 2°55.485 17.8433 1.914877 13.98377 -1.662225
2008-05-21 06:41:48 51°14.032 2°55.481 17.8445 1.914877 13.984056 -1.662225
2008-05-21 06:41:53 51°14.038 2°55.476 17.8455 1.914877 13.984056 -1.662225
2008-05-21 06:41:58 51°14.045 2°55.471 17.8463 1.914877 13.984056 -1.662225
2008-05-21 06:42:03 51°14.051 2°55.467 17.8467 1.914878 13.984342 -1.662225
2008-05-21 06:42:08 51°14.058 2°55.462 17.8481 1.914878 13.984342 -1.662225
2008-05-21 06:42:13 51°14.064 2°55.458 17.8505 1.914878 13.984628 -1.662225
2008-05-21 06:42:18 51°14.071 2°55.454 17.8529 1.914878 13.984628 -1.662225
2008-05-21 06:42:23 51°14.078 2°55.449 17.8649 1.914878 13.984914 -1.662225
2008-05-21 06:42:28 51°14.084 2°55.444 17.8855 1.914878 13.984914 -1.662225
2008-05-21 06:42:33 51°14.091 2°55.439 17.8965 1.914774 13.984378 -1.697049
2008-05-21 06:42:38 51°14.097 2°55.433 17.8801 1.914774 13.984664 -1.662225
2008-05-21 06:42:43 51°14.103 2°55.426 17.8806 1.914774 13.984664 -1.697049
2008-05-21 06:42:48 51°14.109 2°55.42 17.872 1.914774 13.98495 -1.662225
2008-05-21 06:42:53 51°14.116 2°55.414 17.867 1.914774 13.984664 -1.662225
2008-05-21 06:42:58 51°14.123 2°55.407 17.8679 1.914774 13.984664 -1.662225
2008-05-21 06:43:03 51°14.131 2°55.402 17.8743 1.914774 13.985236 -1.662225
2008-05-21 06:43:08 51°14.14 2°55.396 17.8742 1.914774 13.985236 -1.662225
2008-05-21 06:43:13 51°14.149 2°55.39 17.8841 1.914774 13.985522 -1.662225
2008-05-21 06:43:18 51°14.159 2°55.383 17.8854 1.914774 13.985808 -1.662225
2008-05-21 06:43:23 51°14.169 2°55.376 17.8939 1.914774 13.986094 -1.662225
2008-05-21 06:43:28 51°14.179 2°55.368 17.8945 1.914774 13.986094 -1.662225
2008-05-21 06:43:33 51°14.19 2°55.36 17.8704 1.914774 13.98638 -1.662225
2008-05-21 06:43:38 51°14.2 2°55.35 17.85 1.914671 13.985272 -1.662225
2008-05-21 06:43:43 51°14.211 2°55.341 17.8959 1.914671 13.985844 -1.662225
2008-05-21 06:43:48 51°14.222 2°55.33 17.9089 1.914671 13.986131 -1.662225
2008-05-21 06:43:53 51°14.233 2°55.319 17.8982 1.914671 13.986417 -1.662225
2008-05-21 06:43:58 51°14.243 2°55.306 17.8487 1.914671 13.986417 -1.662225
2008-05-21 06:44:03 51°14.254 2°55.292 17.8616 1.914671 13.986417 -1.662225
2008-05-21 06:44:08 51°14.265 2°55.278 17.896 1.914671 13.986417 -1.662225
2008-05-21 06:44:13 51°14.275 2°55.263 17.8943 1.914671 13.986989 -1.662225
2008-05-21 06:44:18 51°14.285 2°55.246 17.8976 1.914671 13.987275 -1.697049
2008-05-21 06:44:23 51°14.295 2°55.229 17.8994 1.914568 13.986453 -1.662225
2008-05-21 06:44:28 51°14.303 2°55.21 17.8082 1.914568 13.986453 -1.662225
2008-05-21 06:44:33 51°14.312 2°55.191 17.8702 1.914568 13.986167 -1.662225
2008-05-21 06:44:38 51°14.32 2°55.171 17.8281 1.914568 13.986739 -1.662225
2008-05-21 06:44:43 51°14.328 2°55.149 17.8176 1.914568 13.986167 -1.662225
2008-05-21 06:44:48 51°14.337 2°55.128 17.8354 1.914568 13.986453 -1.662225
2008-05-21 06:44:53 51°14.345 2°55.106 17.8322 1.914568 13.987025 -1.662225
2008-05-21 06:44:58 51°14.352 2°55.084 17.8349 1.914568 13.987025 -1.662225
2008-05-21 06:45:03 51°14.36 2°55.061 17.8337 1.914568 13.987025 -1.662225
2008-05-21 06:45:08 51°14.367 2°55.037 17.7691 1.914671 13.987561 -1.662225
2008-05-21 06:45:13 51°14.375 2°55.013 17.7915 1.914568 13.987025 -1.662225
2008-05-21 06:45:18 51°14.382 2°54.99 17.8231 1.914568 13.987025 -1.662225
2008-05-21 06:45:23 51°14.39 2°54.966 17.8205 1.914671 13.988133 -1.662225
2008-05-21 06:45:28 51°14.397 2°54.942 17.8224 1.914671 13.988133 -1.662225
2008-05-21 06:45:33 51°14.403 2°54.917 17.7872 1.914671 13.988992 -1.662225
2008-05-21 06:45:38 51°14.411 2°54.892 17.8103 1.914671 13.988706 -1.662225
2008-05-21 06:45:43 51°14.418 2°54.867 17.8114 1.914671 13.988706 -1.662225
2008-05-21 06:45:48 51°14.425 2°54.842 17.8028 1.914671 13.988133 -1.662225
2008-05-21 06:45:53 51°14.432 2°54.817 17.8254 1.914671 13.988133 -1.662225
2008-05-21 06:45:58 51°14.439 2°54.791 17.8252 1.914671 13.988133 -1.662225
2008-05-21 06:46:03 51°14.445 2°54.765 17.7986 1.914981 13.993176 -1.662225
2008-05-21 06:46:08 51°14.45 2°54.738 17.7923 1.914878 13.991781 -1.662225
2008-05-21 06:46:13 51°14.454 2°54.711 17.7906 1.914878 13.989777 -1.662225
2008-05-21 06:46:18 51°14.458 2°54.683 17.7754 1.914878 13.989491 -1.662225
2008-05-21 06:46:23 51°14.461 2°54.655 17.7769 1.914878 13.989491 -1.662225
2008-05-21 06:46:28 51°14.463 2°54.626 17.7716 1.914878 13.989491 -1.662225
2008-05-21 06:46:33 51°14.466 2°54.598 17.8048 1.914878 13.989777 -1.697049
2008-05-21 06:46:38 51°14.467 2°54.569 17.8082 1.914774 13.990673 -1.662225
2008-05-21 06:46:43 51°14.469 2°54.54 17.8245 1.914774 13.991245 -1.662225
2008-05-21 06:46:48 51°14.469 2°54.511 17.7987 1.914774 13.990673 -1.697049
2008-05-21 06:46:53 51°14.469 2°54.482 17.7883 1.914774 13.990959 -1.662225
2008-05-21 06:46:58 51°14.467 2°54.452 17.7929 1.914774 13.990959 -1.662225
2008-05-21 06:47:03 51°14.466 2°54.423 17.793 1.914774 13.991245 -1.662225
2008-05-21 06:47:08 51°14.463 2°54.394 17.7517 1.914774 13.991818 -1.662225
2008-05-21 06:47:13 51°14.46 2°54.365 17.7925 1.914671 13.992427 -1.697049
2008-05-21 06:47:18 51°14.456 2°54.336 17.7715 1.914671 13.992713 -1.662225
2008-05-21 06:47:23 51°14.453 2°54.306 17.7893 1.914671 13.993 -1.662225
2008-05-21 06:47:28 51°14.448 2°54.278 17.7914 1.914671 13.993 -1.662225
2008-05-21 06:47:33 51°14.444 2°54.249 17.7916 1.914671 13.993573 -1.662225
2008-05-21 06:47:38 51°14.44 2°54.221 17.7987 1.914671 13.994718 -1.662225
2008-05-21 06:47:43 51°14.435 2°54.192 17.7775 1.914671 13.996151 -1.662225
2008-05-21 06:47:48 51°14.43 2°54.164 17.7843 1.914671 13.99787 -1.662225
2008-05-21 06:47:53 51°14.425 2°54.135 17.7707 1.914568 13.997907 -1.662225
2008-05-21 06:47:58 51°14.421 2°54.107 17.7765 1.914568 13.997907 -1.662225
2008-05-21 06:48:03 51°14.416 2°54.078 17.779 1.914671 13.99959 -1.662225
2008-05-21 06:48:08 51°14.411 2°54.05 17.7829 1.914568 13.999914 -1.662225
2008-05-21 06:48:13 51°14.406 2°54.021 17.7897 1.914568 13.999627 -1.662225
2008-05-21 06:48:18 51°14.402 2°53.992 17.7647 1.914568 13.998767 -1.697049
2008-05-21 06:48:23 51°14.397 2°53.963 17.7847 1.914465 13.998518 -1.662225
2008-05-21 06:48:28 51°14.391 2°53.934 17.7915 1.914465 13.998518 -1.662225
2008-05-21 06:48:33 51°14.386 2°53.906 17.7862 1.914568 14.001061 -1.662225
2008-05-21 06:48:38 51°14.379 2°53.878 17.7689 1.914568 14.003068 -1.662225
2008-05-21 06:48:43 51°14.373 2°53.85 17.8051 1.914568 14.003068 -1.662225
2008-05-21 06:48:48 51°14.365 2°53.823 17.7547 1.914465 14.002245 -1.662225
2008-05-21 06:48:53 51°14.359 2°53.795 17.7898 1.914362 14.001709 -1.662225
2008-05-21 06:48:58 51°14.35 2°53.768 17.744 1.914362 14.001709 -1.662225
2008-05-21 06:49:03 51°14.344 2°53.74 17.7985 1.914362 14.001422 -1.662225
2008-05-21 06:49:08 51°14.335 2°53.713 17.7554 1.914362 14.002283 -1.662225
2008-05-21 06:49:13 51°14.328 2°53.685 17.7668 1.914362 14.00257 -1.662225
2008-05-21 06:49:18 51°14.32 2°53.658 17.7699 1.914362 14.00343 -1.662225
2008-05-21 06:49:23 51°14.312 2°53.631 17.7592 1.914362 14.004291 -1.662225
2008-05-21 06:49:28 51°14.305 2°53.603 17.7691 1.914362 14.004291 -1.662225
2008-05-21 06:49:33 51°14.297 2°53.576 17.7797 1.914362 14.004291 -1.662225
2008-05-21 06:49:38 51°14.288 2°53.55 17.7505 1.914258 14.002321 -1.662225
2008-05-21 06:49:43 51°14.28 2°53.522 17.7745 1.914258 14.001747 -1.662225
2008-05-21 06:49:48 51°14.271 2°53.496 17.7753 1.914155 14.001211 -1.697049
2008-05-21 06:49:53 51°14.262 2°53.469 17.7801 1.914155 14.001211 -1.662225
2008-05-21 06:49:58 51°14.253 2°53.443 17.7654 1.914155 14.001211 -1.662225
2008-05-21 06:50:03 51°14.244 2°53.417 17.7477 1.914155 14.000637 -1.697049
2008-05-21 06:50:08 51°14.235 2°53.39 17.7785 1.914155 14.001784 -1.662225
2008-05-21 06:50:13 51°14.226 2°53.364 17.7728 1.914155 14.002645 -1.662225
2008-05-21 06:50:18 51°14.217 2°53.337 17.7835 1.914052 14.001535 -1.662225
2008-05-21 06:50:23 51°14.207 2°53.311 17.7899 1.914052 14.000961 -1.662225
2008-05-21 06:50:28 51°14.198 2°53.286 17.7604 1.914052 14.000961 -1.662225
2008-05-21 06:50:33 51°14.188 2°53.26 17.7878 1.913949 13.999278 -1.662225
2008-05-21 06:50:38 51°14.178 2°53.234 17.7921 1.913949 14.000138 -1.662225
2008-05-21 06:50:43 51°14.169 2°53.208 17.7638 1.913949 14.000712 -1.662225
2008-05-21 06:50:48 51°14.159 2°53.182 17.8023 1.913845 14.000176 -1.662225
2008-05-21 06:50:53 51°14.148 2°53.158 17.7774 1.913845 14.000463 -1.662225
2008-05-21 06:50:58 51°14.138 2°53.132 17.7728 1.913845 14.000463 -1.662225
2008-05-21 06:51:03 51°14.128 2°53.107 17.7871 1.913845 13.999602 -1.662225
2008-05-21 06:51:08 51°14.117 2°53.082 17.7618 1.913742 13.998206 -1.697049
2008-05-21 06:51:13 51°14.106 2°53.057 17.7663 1.913742 13.998492 -1.662225
2008-05-21 06:51:18 51°14.097 2°53.031 17.769 1.913742 13.998206 -1.662225
2008-05-21 06:51:23 51°14.086 2°53.006 17.7381 1.913742 13.997919 -1.697049
2008-05-21 06:51:28 51°14.077 2°52.98 17.802 1.913742 13.997919 -1.697049
2008-05-21 06:51:33 51°14.066 2°52.955 17.7712 1.913742 13.998779 -1.662225
2008-05-21 06:51:38 51°14.057 2°52.929 17.7928 1.913742 13.999353 -1.662225
2008-05-21 06:51:43 51°14.046 2°52.904 17.7658 1.913639 13.99853 -1.662225
2008-05-21 06:51:48 51°14.037 2°52.878 17.7666 1.913742 14.000787 -1.662225
2008-05-21 06:51:53 51°14.027 2°52.852 17.785 1.913536 13.999141 -1.662225
2008-05-21 06:51:58 51°14.017 2°52.826 17.748 1.913536 13.999141 -1.662225
2008-05-21 06:52:03 51°14.008 2°52.8 17.7984 1.913639 14.001686 -1.697049
2008-05-21 06:52:08 51°13.997 2°52.775 17.7516 1.913639 14.00226 -1.697049
2008-05-21 06:52:13 51°13.989 2°52.747 17.8073 1.913639 14.003695 -1.697049
2008-05-21 06:52:18 51°13.979 2°52.722 17.748 1.913536 14.000289 -1.662225
2008-05-21 06:52:23 51°13.97 2°52.695 17.7921 1.913536 14.000289 -1.697049
2008-05-21 06:52:28 51°13.96 2°52.669 17.7981 1.913536 14.000289 -1.697049
2008-05-21 06:52:33 51°13.95 2°52.643 17.7735 1.913536 14.002297 -1.662225
2008-05-21 06:52:38 51°13.941 2°52.616 17.7924 1.913536 14.00201 -1.697049
2008-05-21 06:52:43 51°13.931 2°52.591 17.7702 1.913536 14.002584 -1.662225
2008-05-21 06:52:48 51°13.922 2°52.564 17.7926 1.913536 14.003158 -1.697049
2008-05-21 06:52:53 51°13.912 2°52.538 17.7665 1.913536 14.003733 -1.662225
2008-05-21 06:52:58 51°13.903 2°52.511 17.7693 1.913536 14.003733 -1.662225
2008-05-21 06:53:03 51°13.894 2°52.485 17.7886 1.913432 14.002335 -1.662225
2008-05-21 06:53:08 51°13.885 2°52.458 17.796 1.913432 14.00377 -1.697049
2008-05-21 06:53:13 51°13.875 2°52.431 17.7938 1.913432 14.00377 -1.697049
2008-05-21 06:53:18 51°13.865 2°52.405 17.7866 1.913329 14.002373 -1.662225
2008-05-21 06:53:23 51°13.856 2°52.379 17.7861 1.913329 14.001512 -1.662225
2008-05-21 06:53:28 51°13.845 2°52.353 17.7763 1.913329 14.001512 -1.662225
2008-05-21 06:53:33 51°13.836 2°52.327 17.7973 1.913226 14.000975 -1.662225
2008-05-21 06:53:38 51°13.825 2°52.302 17.7748 1.913329 14.004383 -1.662225
2008-05-21 06:53:43 51°13.815 2°52.276 17.7995 1.913226 14.003559 -1.697049
2008-05-21 06:53:48 51°13.804 2°52.251 17.7853 1.913226 14.003272 -1.662225
2008-05-21 06:53:53 51°13.793 2°52.225 17.7925 1.913226 14.002698 -1.662225
2008-05-21 06:53:58 51°13.782 2°52.2 17.7904 1.913226 14.002698 -1.662225
2008-05-21 06:54:03 51°13.771 2°52.175 17.7892 1.913123 14.001013 -1.697049
2008-05-21 06:54:08 51°13.76 2°52.15 17.7581 1.913123 14.0013 -1.697049
2008-05-21 06:54:13 51°13.75 2°52.123 17.8001 1.913123 14.001587 -1.662225
2008-05-21 06:54:18 51°13.738 2°52.099 17.7911 1.913019 14.00019 -1.697049
2008-05-21 06:54:23 51°13.728 2°52.073 17.778 1.913123 14.001874 -1.662225
2008-05-21 06:54:28 51°13.717 2°52.047 17.7979 1.913123 14.001874 -1.662225
2008-05-21 06:54:33 51°13.706 2°52.022 17.7738 1.913019 14.001338 -1.662225
2008-05-21 06:54:38 51°13.696 2°51.996 17.7957 1.913019 14.001051 -1.697049
2008-05-21 06:54:43 51°13.684 2°51.972 17.7936 1.912916 14.001376 -1.662225
2008-05-21 06:54:48 51°13.674 2°51.946 17.7748 1.913019 14.002773 -1.662225
2008-05-21 06:54:53 51°13.663 2°51.92 17.7925 1.912916 14.00195 -1.662225
2008-05-21 06:54:58 51°13.652 2°51.895 17.8041 1.912916 14.00195 -1.662225
2008-05-21 06:55:03 51°13.641 2°51.87 17.7757 1.912916 14.002524 -1.662225
2008-05-21 06:55:08 51°13.631 2°51.844 17.7975 1.912916 14.003098 -1.697049
2008-05-21 06:55:13 51°13.619 2°51.819 17.7917 1.912916 14.003673 -1.697049
2008-05-21 06:55:18 51°13.608 2°51.794 17.7922 1.912916 14.003673 -1.662225
2008-05-21 06:55:23 51°13.597 2°51.768 17.7969 1.912916 14.004247 -1.662225
2008-05-21 06:55:28 51°13.586 2°51.743 17.7744 1.912916 14.004247 -1.662225
2008-05-21 06:55:33 51°13.576 2°51.717 17.7997 1.912916 14.004822 -1.697049
2008-05-21 06:55:38 51°13.565 2°51.692 17.7675 1.912813 14.005147 -1.662225
2008-05-21 06:55:43 51°13.554 2°51.666 17.8134 1.912813 14.003711 -1.697049
2008-05-21 06:55:48 51°13.543 2°51.641 17.7764 1.912813 14.004285 -1.697049
2008-05-21 06:55:53 51°13.533 2°51.614 17.785 1.912813 14.004573 -1.662225
2008-05-21 06:55:58 51°13.522 2°51.591 17.8004 1.912813 14.004573 -1.662225
2008-05-21 06:56:03 51°13.512 2°51.569 17.7958 1.912813 14.006009 -1.697049
2008-05-21 06:56:08 51°13.503 2°51.548 17.7985 1.91271 14.005185 -1.662225
2008-05-21 06:56:13 51°13.493 2°51.529 17.8034 1.91271 14.005472 -1.662225
2008-05-21 06:56:18 51°13.485 2°51.512 17.8049 1.912813 14.007446 -1.697049
2008-05-21 06:56:23 51°13.476 2°51.498 17.8109 1.91271 14.006622 -1.697049
2008-05-21 06:56:28 51°13.468 2°51.485 17.8112 1.91271 14.006622 -1.697049
2008-05-21 06:56:33 51°13.461 2°51.474 17.8094 1.91271 14.006622 -1.662225
2008-05-21 06:56:38 51°13.454 2°51.466 17.8259 1.912606 14.005511 -1.662225
2008-05-21 06:56:43 51°13.448 2°51.459 17.8153 1.912606 14.005798 -1.662225
2008-05-21 06:56:48 51°13.443 2°51.454 17.8164 1.912606 14.005798 -1.697049
2008-05-21 06:56:53 51°13.439 2°51.45 17.8145 1.912503 14.005261 -1.662225
2008-05-21 06:56:58 51°13.436 2°51.446 17.8183 1.912503 14.005261 -1.662225
2008-05-21 06:57:03 51°13.434 2°51.442 17.8219 1.912503 14.005261 -1.697049
2008-05-21 06:57:08 51°13.433 2°51.439 17.8208 1.912503 14.005261 -1.697049
2008-05-21 06:57:13 51°13.433 2°51.435 17.8203 1.912503 14.004974 -1.662225
2008-05-21 06:57:18 51°13.433 2°51.432 17.811 1.9124 14.00415 -1.697049
2008-05-21 06:57:23 51°13.432 2°51.428 17.8135 1.9124 14.003001 -1.697049
2008-05-21 06:57:28 51°13.432 2°51.424 17.8272 1.9124 14.003001 -1.697049
2008-05-21 06:57:33 51°13.432 2°51.421 17.8291 1.9124 14.002426 -1.662225
2008-05-21 06:57:38 51°13.432 2°51.418 17.8289 1.9124 14.003001 -1.697049
2008-05-21 06:57:43 51°13.432 2°51.415 17.8195 1.912297 14.002752 -1.662225
2008-05-21 06:57:48 51°13.431 2°51.412 17.8217 1.912297 14.003901 -1.662225
2008-05-21 06:57:53 51°13.431 2°51.409 17.8084 1.912297 14.004763 -1.662225
2008-05-21 06:57:58 51°13.431 2°51.406 17.7935 1.912297 14.004763 -1.662225
2008-05-21 06:58:03 51°13.431 2°51.402 17.8096 1.912297 14.005338 -1.697049
2008-05-21 06:58:08 51°13.43 2°51.399 17.8218 1.912297 14.006487 -1.697049
2008-05-21 06:58:13 51°13.43 2°51.396 17.8277 1.912194 14.005951 -1.697049
2008-05-21 06:58:18 51°13.43 2°51.392 17.8257 1.912194 14.005376 -1.697049
2008-05-21 06:58:23 51°13.429 2°51.389 17.8294 1.912194 14.005951 -1.697049
2008-05-21 06:58:28 51°13.429 2°51.385 17.8264 1.912194 14.005951 -1.697049
2008-05-21 06:58:33 51°13.429 2°51.382 17.8156 1.912194 14.005663 -1.662225
2008-05-21 06:58:38 51°13.428 2°51.378 17.8159 1.91209 14.004839 -1.662225
2008-05-21 06:58:43 51°13.428 2°51.375 17.8203 1.912194 14.006238 -1.662225
2008-05-21 06:58:48 51°13.427 2°51.371 17.8107 1.91209 14.006276 -1.662225
2008-05-21 06:58:53 51°13.426 2°51.368 17.8124 1.91209 14.006564 -1.662225
2008-05-21 06:58:58 51°13.426 2°51.365 17.8199 1.91209 14.006564 -1.662225
2008-05-21 06:59:03 51°13.425 2°51.362 17.8099 1.911987 14.00574 -1.697049
2008-05-21 06:59:08 51°13.425 2°51.358 17.8231 1.91209 14.005989 -1.697049
2008-05-21 06:59:13 51°13.424 2°51.354 17.8273 1.911987 14.005452 -1.662225
2008-05-21 06:59:18 51°13.423 2°51.351 17.8287 1.911987 14.005165 -1.662225
2008-05-21 06:59:23 51°13.423 2°51.348 17.8188 1.911987 14.004877 -1.662225
2008-05-21 06:59:28 51°13.422 2°51.344 17.8329 1.911987 14.004877 -1.662225
2008-05-21 06:59:33 51°13.421 2°51.341 17.8322 1.911884 14.004916 -1.697049
2008-05-21 06:59:38 51°13.421 2°51.337 17.8239 1.911884 14.004628 -1.697049
2008-05-21 06:59:43 51°13.42 2°51.334 17.817 1.911884 14.004341 -1.662225
2008-05-21 06:59:48 51°13.419 2°51.33 17.8163 1.911884 14.004916 -1.697049
2008-05-21 06:59:53 51°13.419 2°51.326 17.8354 1.911781 14.004379 -1.662225
2008-05-21 06:59:58 51°13.418 2°51.323 17.8295 1.911781 14.004379 -1.662225
2008-05-21 07:00:03 51°13.417 2°51.319 17.8246 1.911781 14.005816 -1.697049
2008-05-21 07:00:08 51°13.416 2°51.316 17.8289 1.911781 14.006104 -1.662225
2008-05-21 07:00:13 51°13.416 2°51.313 17.8318 1.911781 14.006679 -1.697049
2008-05-21 07:00:18 51°13.415 2°51.309 17.8337 1.911677 14.005855 -1.662225
2008-05-21 07:00:23 51°13.414 2°51.306 17.8332 1.911677 14.006142 -1.662225
2008-05-21 07:00:28 51°13.413 2°51.302 17.8362 1.911677 14.006142 -1.662225
2008-05-21 07:00:33 51°13.413 2°51.299 17.817 1.911677 14.006717 -1.697049
2008-05-21 07:00:38 51°13.412 2°51.295 17.8366 1.911677 14.007005 -1.662225
2008-05-21 07:00:43 51°13.411 2°51.292 17.833 1.911677 14.008155 -1.697049
2008-05-21 07:00:48 51°13.41 2°51.288 17.8331 1.911677 14.008443 -1.662225
2008-05-21 07:00:53 51°13.409 2°51.285 17.8374 1.911574 14.007043 -1.697049
2008-05-21 07:00:58 51°13.408 2°51.282 17.8393 1.911574 14.007043 -1.697049
2008-05-21 07:01:03 51°13.407 2°51.278 17.8316 1.911574 14.006468 -1.697049
2008-05-21 07:01:08 51°13.407 2°51.275 17.8366 1.911574 14.006181 -1.662225
2008-05-21 07:01:13 51°13.406 2°51.271 17.8422 1.911574 14.005318 -1.697049
2008-05-21 07:01:18 51°13.405 2°51.268 17.8393 1.911471 14.004494 -1.662225
2008-05-21 07:01:23 51°13.404 2°51.265 17.8288 1.911471 14.004781 -1.697049
2008-05-21 07:01:28 51°13.403 2°51.261 17.832 1.911471 14.004781 -1.697049
2008-05-21 07:01:33 51°13.402 2°51.258 17.8437 1.911471 14.004781 -1.697049
2008-05-21 07:01:38 51°13.401 2°51.254 17.8402 1.911471 14.005069 -1.697049
2008-05-21 07:01:43 51°13.4 2°51.25 17.8417 1.911471 14.005069 -1.697049
2008-05-21 07:01:48 51°13.399 2°51.247 17.8406 1.911368 14.004244 -1.662225
2008-05-21 07:01:53 51°13.397 2°51.242 17.8439 1.911368 14.004532 -1.697049
2008-05-21 07:01:59 51°13.395 2°51.237 17.8356 1.911368 14.004532 -1.697049
2008-05-21 07:02:03 51°13.393 2°51.233 17.8327 1.911368 14.004819 -1.697049
2008-05-21 07:02:08 51°13.39 2°51.227 17.8323 1.911368 14.005394 -1.662225
2008-05-21 07:02:13 51°13.388 2°51.221 17.8339 1.911368 14.005682 -1.662225
2008-05-21 07:02:18 51°13.385 2°51.214 17.8469 1.911264 14.004858 -1.662225
2008-05-21 07:02:23 51°13.381 2°51.207 17.8229 1.911264 14.005145 -1.697049
2008-05-21 07:02:28 51°13.378 2°51.199 17.8388 1.911264 14.005145 -1.697049
2008-05-21 07:02:33 51°13.375 2°51.19 17.848 1.911264 14.004858 -1.697049
2008-05-21 07:02:38 51°13.371 2°51.181 17.8543 1.911264 14.00572 -1.662225
2008-05-21 07:02:43 51°13.367 2°51.169 17.8459 1.911264 14.007446 -1.697049
2008-05-21 07:02:48 51°13.362 2°51.155 17.8465 1.911264 14.008597 -1.662225
2008-05-21 07:02:53 51°13.357 2°51.139 17.8702 1.911264 14.008022 -1.697049
2008-05-21 07:02:58 51°13.35 2°51.122 17.8455 1.911264 14.008022 -1.697049
2008-05-21 07:03:03 51°13.343 2°51.102 17.8513 1.911264 14.007446 -1.662225
2008-05-21 07:03:08 51°13.335 2°51.082 17.8394 1.911161 14.005759 -1.662225
2008-05-21 07:03:13 51°13.327 2°51.06 17.8567 1.911161 14.005759 -1.662225
2008-05-21 07:03:18 51°13.317 2°51.038 17.8465 1.911058 14.004071 -1.662225
2008-05-21 07:03:23 51°13.309 2°51.014 17.8457 1.910955 14.003247 -1.697049
2008-05-21 07:03:28 51°13.3 2°50.99 17.8412 1.910955 14.003247 -1.697049
2008-05-21 07:03:33 51°13.29 2°50.966 17.8392 1.910955 14.002959 -1.697049
2008-05-21 07:03:39 51°13.279 2°50.936 17.8619 1.910955 14.003822 -1.662225
2008-05-21 07:03:43 51°13.271 2°50.917 17.8182 1.910955 14.004973 -1.697049
2008-05-21 07:03:48 51°13.261 2°50.891 17.8547 1.911058 14.004647 -1.697049
2008-05-21 07:03:53 51°13.25 2°50.867 17.8272 1.910851 14.002998 -1.697049
2008-05-21 07:03:58 51°13.241 2°50.841 17.8584 1.910851 14.002998 -1.697049
2008-05-21 07:04:03 51°13.23 2°50.816 17.8239 1.910955 14.005548 -1.662225
2008-05-21 07:04:08 51°13.221 2°50.79 17.8343 1.910955 14.00526 -1.697049
2008-05-21 07:04:13 51°13.211 2°50.765 17.8205 1.910851 14.004723 -1.697049
2008-05-21 07:04:18 51°13.202 2°50.738 17.8272 1.910955 14.006986 -1.697049
2008-05-21 07:04:23 51°13.194 2°50.711 17.8326 1.910851 14.006737 -1.697049
2008-05-21 07:04:28 51°13.184 2°50.685 17.8368 1.910851 14.006737 -1.697049
2008-05-21 07:04:33 51°13.176 2°50.657 17.8587 1.911161 14.010938 -1.662225
2008-05-21 07:04:38 51°13.167 2°50.63 17.8362 1.911058 14.008387 -1.697049
2008-05-21 07:04:43 51°13.159 2°50.603 17.8532 1.911058 14.007523 -1.697049
2008-05-21 07:04:48 51°13.15 2°50.576 17.8474 1.911058 14.007523 -1.697049
2008-05-21 07:04:53 51°13.142 2°50.548 17.8583 1.911058 14.007811 -1.697049
2008-05-21 07:04:58 51°13.134 2°50.521 17.8669 1.911058 14.007811 -1.697049
2008-05-21 07:05:03 51°13.125 2°50.494 17.8615 1.910955 14.006699 -1.662225
2008-05-21 07:05:08 51°13.117 2°50.466 17.874 1.911058 14.006373 -1.697049
2008-05-21 07:05:13 51°13.107 2°50.44 17.8367 1.910851 14.004723 -1.662225
2008-05-21 07:05:18 51°13.099 2°50.412 17.8669 1.910851 14.005874 -1.662225
2008-05-21 07:05:23 51°13.09 2°50.386 17.8562 1.910748 14.006488 -1.662225
2008-05-21 07:05:28 51°13.081 2°50.359 17.8535 1.910748 14.006488 -1.662225
2008-05-21 07:05:33 51°13.072 2°50.331 17.8673 1.910851 14.009615 -1.697049
2008-05-21 07:05:38 51°13.063 2°50.305 17.865 1.910748 14.01311 -1.697049
2008-05-21 07:05:43 51°13.054 2°50.277 17.8631 1.910852 14.01624 -1.662225
2008-05-21 07:05:48 51°13.045 2°50.251 17.8509 1.910748 14.01455 -1.662225
2008-05-21 07:05:53 51°13.036 2°50.223 17.8726 1.910645 14.011133 -1.697049
2008-05-21 07:05:58 51°13.027 2°50.196 17.8518 1.910645 14.011133 -1.697049
2008-05-21 07:06:03 51°13.018 2°50.169 17.8505 1.910645 14.010269 -1.697049
2008-05-21 07:06:08 51°13.01 2°50.142 17.8708 1.910645 14.009405 -1.697049
2008-05-21 07:06:13 51°13 2°50.115 17.8462 1.910542 14.007716 -1.662225
2008-05-21 07:06:19 51°12.99 2°50.082 17.8739 1.910645 14.007966 -1.662225
2008-05-21 07:06:23 51°12.982 2°50.061 17.8599 1.910542 14.006565 -1.662225
2008-05-21 07:06:28 51°12.974 2°50.034 17.868 1.910542 14.006565 -1.662225
2008-05-21 07:06:33 51°12.965 2°50.006 17.8558 1.910645 14.008829 -1.697049
2008-05-21 07:06:38 51°12.956 2°49.979 17.8521 1.910542 14.008292 -1.697049
2008-05-21 07:06:43 51°12.947 2°49.952 17.8763 1.910438 14.007467 -1.662225
2008-05-21 07:06:48 51°12.938 2°49.925 17.8734 1.910438 14.007467 -1.662225
2008-05-21 07:06:53 51°12.929 2°49.897 17.8678 1.910438 14.007467 -1.662225
2008-05-21 07:06:58 51°12.92 2°49.87 17.8607 1.910438 14.007467 -1.662225
2008-05-21 07:07:03 51°12.911 2°49.843 17.8761 1.910438 14.006891 -1.662225
2008-05-21 07:07:08 51°12.902 2°49.815 17.8814 1.910438 14.008043 -1.697049
2008-05-21 07:07:13 51°12.893 2°49.788 17.8497 1.910335 14.007218 -1.697049
2008-05-21 07:07:18 51°12.885 2°49.76 17.8613 1.910335 14.007506 -1.697049
2008-05-21 07:07:23 51°12.877 2°49.733 17.8502 1.910438 14.009482 -1.697049
2008-05-21 07:07:28 51°12.868 2°49.705 17.8664 1.910438 14.009482 -1.697049
2008-05-21 07:07:33 51°12.861 2°49.677 17.8832 1.910335 14.009809 -1.697049
2008-05-21 07:07:38 51°12.851 2°49.65 17.8582 1.910335 14.010097 -1.662225
2008-05-21 07:07:43 51°12.844 2°49.622 17.9003 1.910438 14.010922 -1.697049
2008-05-21 07:07:48 51°12.834 2°49.595 17.8479 1.910232 14.00812 -1.697049
2008-05-21 07:07:53 51°12.827 2°49.567 17.9031 1.910232 14.00812 -1.662225
2008-05-21 07:07:58 51°12.818 2°49.54 17.8639 1.910232 14.00812 -1.662225
2008-05-21 07:08:03 51°12.809 2°49.513 17.8783 1.910129 14.005568 -1.697049
2008-05-21 07:08:08 51°12.8 2°49.486 17.8717 1.910129 14.007871 -1.697049
2008-05-21 07:08:13 51°12.791 2°49.459 17.8685 1.910232 14.009272 -1.697049
2008-05-21 07:08:18 51°12.783 2°49.432 17.8842 1.910129 14.008159 -1.697049
2008-05-21 07:08:23 51°12.774 2°49.405 17.8502 1.910129 14.010751 -1.697049
2008-05-21 07:08:28 51°12.766 2°49.376 17.9132 1.910129 14.010751 -1.697049
2008-05-21 07:08:33 51°12.757 2°49.35 17.875 1.910129 14.009887 -1.697049
2008-05-21 07:08:39 51°12.748 2°49.316 17.8875 1.910129 14.009887 -1.697049
2008-05-21 07:08:43 51°12.741 2°49.294 17.8963 1.910129 14.009599 -1.697049
2008-05-21 07:08:48 51°12.732 2°49.266 17.8688 1.910025 14.008774 -1.662225
2008-05-21 07:08:53 51°12.725 2°49.238 17.892 1.909922 14.007373 -1.697049
2008-05-21 07:08:58 51°12.716 2°49.211 17.8783 1.909922 14.007373 -1.697049
2008-05-21 07:09:03 51°12.708 2°49.183 17.8813 1.910025 14.007046 -1.697049
2008-05-21 07:09:08 51°12.699 2°49.155 17.8738 1.910025 14.008486 -1.662225
2008-05-21 07:09:13 51°12.692 2°49.127 17.8889 1.910025 14.011943 -1.697049
2008-05-21 07:09:18 51°12.683 2°49.1 17.8901 1.909922 14.010253 -1.697049
2008-05-21 07:09:23 51°12.674 2°49.072 17.8879 1.909922 14.009101 -1.697049
2008-05-21 07:09:28 51°12.666 2°49.045 17.8775 1.909922 14.009101 -1.697049
2008-05-21 07:09:33 51°12.657 2°49.017 17.9036 1.910025 14.009926 -1.697049
2008-05-21 07:09:38 51°12.648 2°48.991 17.8825 1.909819 14.008563 -1.697049
2008-05-21 07:09:43 51°12.639 2°48.963 17.9028 1.909819 14.008563 -1.697049
2008-05-21 07:09:48 51°12.629 2°48.937 17.8773 1.909819 14.009139 -1.697049
2008-05-21 07:09:53 51°12.621 2°48.91 17.8991 1.909819 14.010004 -1.697049
2008-05-21 07:09:58 51°12.611 2°48.883 17.8835 1.909819 14.010004 -1.697049
2008-05-21 07:10:03 51°12.602 2°48.856 17.8978 1.909716 14.007738 -1.697049
2008-05-21 07:10:08 51°12.592 2°48.83 17.8805 1.909716 14.007162 -1.662225
2008-05-21 07:10:13 51°12.584 2°48.802 17.9016 1.909716 14.007162 -1.697049
2008-05-21 07:10:19 51°12.572 2°48.77 17.8813 1.909716 14.008602 -1.697049
2008-05-21 07:10:23 51°12.566 2°48.748 17.8837 1.909716 14.009466 -1.697049
2008-05-21 07:10:28 51°12.557 2°48.721 17.8978 1.909716 14.009466 -1.697049
2008-05-21 07:10:33 51°12.548 2°48.694 17.8814 1.909716 14.011772 -1.697049
2008-05-21 07:10:38 51°12.54 2°48.665 17.9095 1.909819 14.016056 -1.662225
2008-05-21 07:10:43 51°12.531 2°48.639 17.8846 1.909613 14.015559 -1.662225
2008-05-21 07:10:48 51°12.522 2°48.611 17.9063 1.909716 14.016961 -1.697049
2008-05-21 07:10:53 51°12.513 2°48.585 17.8958 1.909613 14.014117 -1.697049
2008-05-21 07:10:59 51°12.502 2°48.553 17.8997 1.909613 14.014117 -1.697049
2008-05-21 07:11:03 51°12.494 2°48.531 17.8982 1.909509 14.010409 -1.697049
2008-05-21 07:11:08 51°12.485 2°48.504 17.9093 1.909509 14.00868 -1.697049
2008-05-21 07:11:13 51°12.475 2°48.478 17.9116 1.909509 14.009544 -1.697049
2008-05-21 07:11:18 51°12.466 2°48.451 17.9178 1.909509 14.009832 -1.697049
2008-05-21 07:11:23 51°12.456 2°48.425 17.9105 1.909406 14.010448 -1.697049
2008-05-21 07:11:28 51°12.447 2°48.398 17.9157 1.909406 14.010448 -1.697049
2008-05-21 07:11:33 51°12.437 2°48.371 17.9175 1.909406 14.009871 -1.697049
2008-05-21 07:11:38 51°12.427 2°48.345 17.9044 1.909406 14.010448 -1.697049
2008-05-21 07:11:43 51°12.418 2°48.318 17.9132 1.909406 14.011601 -1.697049
2008-05-21 07:11:48 51°12.408 2°48.292 17.9134 1.909406 14.011024 -1.697049
2008-05-21 07:11:53 51°12.399 2°48.265 17.9121 1.909406 14.011889 -1.697049
2008-05-21 07:11:58 51°12.389 2°48.239 17.8979 1.909406 14.011889 -1.697049
2008-05-21 07:12:03 51°12.381 2°48.212 17.9141 1.909406 14.012754 -1.697049
2008-05-21 07:12:08 51°12.371 2°48.186 17.8942 1.909303 14.010775 -1.697049
2008-05-21 07:12:13 51°12.362 2°48.158 17.9071 1.909303 14.011352 -1.697049
2008-05-21 07:12:18 51°12.353 2°48.132 17.9094 1.909303 14.011352 -1.697049
2008-05-21 07:12:23 51°12.345 2°48.104 17.9175 1.909303 14.01164 -1.697049
2008-05-21 07:12:28 51°12.336 2°48.077 17.919 1.909303 14.01164 -1.697049
2008-05-21 07:12:33 51°12.328 2°48.049 17.9221 1.909303 14.012505 -1.697049
2008-05-21 07:12:38 51°12.319 2°48.022 17.9027 1.909303 14.013081 -1.697049
2008-05-21 07:12:43 51°12.31 2°47.995 17.9191 1.9092 14.011102 -1.697049
2008-05-21 07:12:48 51°12.3 2°47.969 17.9053 1.909199 14.00995 -1.697049
2008-05-21 07:12:53 51°12.291 2°47.942 17.9184 1.909096 14.009989 -1.697049
2008-05-21 07:12:59 51°12.281 2°47.909 17.9012 1.909096 14.009989 -1.697049
2008-05-21 07:13:03 51°12.274 2°47.887 17.9083 1.9092 14.010526 -1.662225
2008-05-21 07:13:08 51°12.265 2°47.861 17.9134 1.909096 14.009989 -1.697049
2008-05-21 07:13:13 51°12.257 2°47.833 17.9218 1.909096 14.01143 -1.697049
2008-05-21 07:13:18 51°12.248 2°47.806 17.9159 1.909096 14.012872 -1.697049
2008-05-21 07:13:23 51°12.24 2°47.778 17.9107 1.909096 14.011718 -1.697049
2008-05-21 07:13:28 51°12.232 2°47.75 17.923 1.909096 14.011718 -1.697049
2008-05-21 07:13:33 51°12.223 2°47.723 17.9097 1.908993 14.010892 -1.697049
2008-05-21 07:13:38 51°12.215 2°47.695 17.9185 1.908993 14.011181 -1.697049
2008-05-21 07:13:43 51°12.207 2°47.668 17.917 1.909096 14.010853 -1.662225
2008-05-21 07:13:48 51°12.198 2°47.641 17.9226 1.90889 14.009778 -1.697049
2008-05-21 07:13:53 51°12.19 2°47.613 17.9298 1.908993 14.012334 -1.697049
2008-05-21 07:13:58 51°12.181 2°47.586 17.9347 1.908993 14.012334 -1.697049
2008-05-21 07:14:03 51°12.173 2°47.558 17.9189 1.908993 14.013488 -1.697049
2008-05-21 07:14:08 51°12.165 2°47.531 17.9206 1.908993 14.012622 -1.697049
2008-05-21 07:14:13 51°12.156 2°47.504 17.9197 1.90889 14.011508 -1.697049
2008-05-21 07:14:18 51°12.147 2°47.476 17.9314 1.90889 14.011797 -1.697049
2008-05-21 07:14:23 51°12.139 2°47.449 17.9203 1.90889 14.01295 -1.662225
2008-05-21 07:14:28 51°12.13 2°47.421 17.9188 1.90889 14.01295 -1.662225
2008-05-21 07:14:33 51°12.124 2°47.393 17.9179 1.908787 14.011548 -1.697049
2008-05-21 07:14:38 51°12.116 2°47.365 17.9258 1.908787 14.012124 -1.697049
2008-05-21 07:14:43 51°12.11 2°47.337 17.9304 1.90889 14.013815 -1.697049
2008-05-21 07:14:48 51°12.103 2°47.309 17.9224 1.908787 14.012413 -1.697049
2008-05-21 07:14:53 51°12.096 2°47.28 17.9312 1.908787 14.010682 -1.697049
2008-05-21 07:14:58 51°12.09 2°47.251 17.9383 1.908787 14.010682 -1.697049
2008-05-21 07:15:03 51°12.083 2°47.223 17.9253 1.908683 14.008992 -1.662225
2008-05-21 07:15:08 51°12.077 2°47.194 17.9354 1.908787 14.009529 -1.697049
2008-05-21 07:15:13 51°12.071 2°47.166 17.9473 1.908683 14.009568 -1.697049
2008-05-21 07:15:19 51°12.063 2°47.131 17.9295 1.908683 14.01274 -1.697049
2008-05-21 07:15:23 51°12.059 2°47.108 17.9323 1.90858 14.013645 -1.697049
2008-05-21 07:15:28 51°12.052 2°47.079 17.9345 1.90858 14.013645 -1.697049
2008-05-21 07:15:33 51°12.046 2°47.051 17.9508 1.90858 14.013068 -1.697049
2008-05-21 07:15:38 51°12.04 2°47.022 17.9368 1.90858 14.013068 -1.697049
2008-05-21 07:15:43 51°12.034 2°46.993 17.9496 1.908683 14.013029 -1.697049
2008-05-21 07:15:48 51°12.028 2°46.964 17.9311 1.90858 14.010472 -1.697049
2008-05-21 07:15:53 51°12.022 2°46.935 17.9573 1.908787 14.012989 -1.697049
2008-05-21 07:15:58 51°12.015 2°46.907 17.9169 1.908787 14.012989 -1.697049
2008-05-21 07:16:03 51°12.01 2°46.877 17.9586 1.90858 14.011914 -1.697049
2008-05-21 07:16:08 51°12.003 2°46.849 17.92 1.90858 14.010761 -1.697049
2008-05-21 07:16:13 51°11.999 2°46.819 17.969 1.90858 14.012203 -1.697049
2008-05-21 07:16:18 51°11.991 2°46.791 17.9246 1.908477 14.009358 -1.697049
2008-05-21 07:16:23 51°11.986 2°46.761 17.9698 1.908477 14.011665 -1.697049
2008-05-21 07:16:28 51°11.98 2°46.733 17.9376 1.908477 14.011665 -1.697049
2008-05-21 07:16:33 51°11.974 2°46.704 17.9502 1.90858 14.011626 -1.697049
2008-05-21 07:16:38 51°11.968 2°46.675 17.9415 1.908374 14.009974 -1.697049
2008-05-21 07:16:43 51°11.963 2°46.646 17.9579 1.908374 14.010263 -1.697049
2008-05-21 07:16:48 51°11.956 2°46.617 17.9597 1.908374 14.010551 -1.697049
2008-05-21 07:16:53 51°11.95 2°46.588 17.9651 1.90827 14.011167 -1.697049
2008-05-21 07:16:58 51°11.944 2°46.56 17.9502 1.90827 14.011167 -1.697049
2008-05-21 07:17:03 51°11.938 2°46.53 17.9592 1.908374 14.013147 -1.697049
2008-05-21 07:17:08 51°11.933 2°46.501 17.9591 1.90827 14.013764 -1.697049
2008-05-21 07:17:13 51°11.927 2°46.472 17.952 1.908374 14.016033 -1.697049
2008-05-21 07:17:18 51°11.922 2°46.442 17.9611 1.90827 14.01665 -1.697049
2008-05-21 07:17:23 51°11.916 2°46.413 17.952 1.90827 14.016361 -1.697049
2008-05-21 07:17:28 51°11.912 2°46.383 17.9578 1.90827 14.016361 -1.697049
2008-05-21 07:17:33 51°11.907 2°46.353 17.9533 1.90827 14.01665 -1.697049
2008-05-21 07:17:39 51°11.901 2°46.318 17.9582 1.90827 14.016939 -1.697049
2008-05-21 07:17:43 51°11.897 2°46.294 17.9515 1.908167 14.01669 -1.697049
2008-05-21 07:17:48 51°11.892 2°46.264 17.9578 1.90827 14.017516 -1.697049
2008-05-21 07:17:53 51°11.887 2°46.234 17.9411 1.908167 14.016401 -1.697049
2008-05-21 07:17:58 51°11.883 2°46.204 17.9578 1.908167 14.016401 -1.697049
2008-05-21 07:18:03 51°11.878 2°46.174 17.9651 1.908167 14.016112 -1.697049
2008-05-21 07:18:08 51°11.874 2°46.144 17.9593 1.908167 14.018422 -1.697049
2008-05-21 07:18:13 51°11.87 2°46.113 17.9652 1.908064 14.016441 -1.697049
2008-05-21 07:18:18 51°11.865 2°46.083 17.9456 1.90827 14.019249 -1.697049
2008-05-21 07:18:23 51°11.862 2°46.053 17.9653 1.90827 14.016939 -1.697049
2008-05-21 07:18:28 51°11.857 2°46.023 17.9563 1.90827 14.016939 -1.697049
2008-05-21 07:18:33 51°11.853 2°45.992 17.9701 1.908064 14.012688 -1.697049
2008-05-21 07:18:38 51°11.849 2°45.962 17.9626 1.908064 14.011823 -1.697049
2008-05-21 07:18:43 51°11.844 2°45.932 17.9773 1.908167 14.011783 -1.697049
2008-05-21 07:18:48 51°11.839 2°45.902 17.9671 1.907961 14.008977 -1.697049
2008-05-21 07:18:53 51°11.835 2°45.872 17.9736 1.907961 14.010131 -1.697049
2008-05-21 07:18:58 51°11.829 2°45.842 17.9447 1.907961 14.010131 -1.697049
2008-05-21 07:19:03 51°11.825 2°45.812 17.9681 1.907961 14.011573 -1.697049
2008-05-21 07:19:08 51°11.82 2°45.782 17.9637 1.907961 14.014459 -1.697049
2008-05-21 07:19:13 51°11.816 2°45.752 17.968 1.908064 14.017018 -1.697049
2008-05-21 07:19:18 51°11.81 2°45.722 17.9713 1.907961 14.01648 -1.697049
2008-05-21 07:19:23 51°11.805 2°45.692 17.9818 1.907857 14.014499 -1.697049
2008-05-21 07:19:28 51°11.799 2°45.663 17.9582 1.907857 14.014499 -1.697049
2008-05-21 07:19:33 51°11.795 2°45.633 17.9796 1.907857 14.015943 -1.662225
2008-05-21 07:19:39 51°11.789 2°45.597 17.9759 1.907857 14.018253 -1.697049
2008-05-21 07:19:43 51°11.784 2°45.573 17.9644 1.907857 14.019408 -1.697049
2008-05-21 07:19:48 51°11.78 2°45.544 17.9874 1.907961 14.021969 -1.697049
2008-05-21 07:19:53 51°11.775 2°45.514 17.9597 1.907858 14.02172 -1.697049
2008-05-21 07:19:58 51°11.77 2°45.484 17.9985 1.907858 14.02172 -1.697049
2008-05-21 07:20:03 51°11.765 2°45.454 17.9824 1.907858 14.022298 -1.697049
2008-05-21 07:20:08 51°11.76 2°45.424 17.988 1.907961 14.019946 -1.697049
2008-05-21 07:20:13 51°11.755 2°45.394 17.9759 1.907754 14.018004 -1.697049
2008-05-21 07:20:19 51°11.749 2°45.359 17.9749 1.907754 14.017426 -1.697049
2008-05-21 07:20:23 51°11.744 2°45.335 17.9656 1.907651 14.015733 -1.697049
2008-05-21 07:20:28 51°11.739 2°45.305 17.9762 1.907651 14.015733 -1.697049
2008-05-21 07:20:33 51°11.734 2°45.275 17.9869 1.907651 14.014867 -1.697049
2008-05-21 07:20:38 51°11.73 2°45.245 17.9907 1.907651 14.016022 -1.697049
2008-05-21 07:20:43 51°11.725 2°45.215 17.9813 1.907651 14.017755 -1.697049
2008-05-21 07:20:48 51°11.721 2°45.185 17.984 1.907651 14.019489 -1.697049
2008-05-21 07:20:53 51°11.716 2°45.155 17.9867 1.907651 14.020355 -1.662225
2008-05-21 07:20:58 51°11.712 2°45.124 17.9939 1.907651 14.020355 -1.662225
2008-05-21 07:21:03 51°11.707 2°45.095 17.9745 1.907548 14.022708 -1.697049
2008-05-21 07:21:08 51°11.703 2°45.064 17.9934 1.907548 14.024154 -1.697049
2008-05-21 07:21:13 51°11.699 2°45.034 17.9733 1.907548 14.027336 -1.662225
2008-05-21 07:21:18 51°11.694 2°45.004 17.9939 1.907548 14.026468 -1.697049
2008-05-21 07:21:23 51°11.69 2°44.974 17.9829 1.907548 14.0256 -1.697049
2008-05-21 07:21:28 51°11.686 2°44.944 17.9917 1.907548 14.0256 -1.697049
2008-05-21 07:21:33 51°11.681 2°44.914 17.9801 1.907445 14.023037 -1.697049
2008-05-21 07:21:38 51°11.677 2°44.884 18.0012 1.907445 14.02217 -1.697049
2008-05-21 07:21:43 51°11.672 2°44.854 17.9971 1.907445 14.02217 -1.697049
2008-05-21 07:21:48 51°11.668 2°44.824 17.9891 1.907445 14.023327 -1.697049
2008-05-21 07:21:53 51°11.663 2°44.794 17.9875 1.907548 14.021552 -1.697049
2008-05-21 07:21:59 51°11.658 2°44.759 17.9977 1.907548 14.021552 -1.697049
2008-05-21 07:22:03 51°11.654 2°44.735 17.9984 1.907341 14.020476 -1.697049
2008-05-21 07:22:08 51°11.65 2°44.705 17.9937 1.907238 14.019649 -1.697049
2008-05-21 07:22:13 51°11.644 2°44.675 17.9983 1.907238 14.018782 -1.697049
2008-05-21 07:22:19 51°11.639 2°44.639 18.008 1.907238 14.018493 -1.662225
2008-05-21 07:22:23 51°11.635 2°44.616 17.9848 1.907341 14.020765 -1.697049
2008-05-21 07:22:28 51°11.63 2°44.586 17.9854 1.907341 14.020765 -1.697049
2008-05-21 07:22:33 51°11.626 2°44.556 17.9947 1.907341 14.021921 -1.697049
2008-05-21 07:22:38 51°11.621 2°44.527 18.0001 1.907135 14.019689 -1.697049
2008-05-21 07:22:43 51°11.617 2°44.497 18.0026 1.907135 14.019111 -1.697049
2008-05-21 07:22:48 51°11.613 2°44.467 18.007 1.907238 14.018782 -1.697049
2008-05-21 07:22:53 51°11.609 2°44.438 18.0019 1.907135 14.018244 -1.697049
2008-05-21 07:22:58 51°11.605 2°44.408 17.9926 1.907135 14.018244 -1.697049
2008-05-21 07:23:03 51°11.601 2°44.379 17.9998 1.907031 14.016839 -1.697049
2008-05-21 07:23:08 51°11.597 2°44.349 18.0019 1.907032 14.017128 -1.697049
2008-05-21 07:23:13 51°11.593 2°44.319 18.0092 1.907032 14.017128 -1.697049
2008-05-21 07:23:18 51°11.59 2°44.289 17.9967 1.907031 14.016839 -1.697049
2008-05-21 07:23:23 51°11.587 2°44.259 18.0151 1.907031 14.015972 -1.697049
2008-05-21 07:23:28 51°11.583 2°44.23 18.011 1.907031 14.015972 -1.697049
2008-05-21 07:23:33 51°11.58 2°44.2 18.0017 1.907135 14.018244 -1.697049
2008-05-21 07:23:38 51°11.577 2°44.17 18.0167 1.907238 14.020516 -1.697049
2008-05-21 07:23:43 51°11.573 2°44.141 18.0182 1.907135 14.020556 -1.697049
2008-05-21 07:23:48 51°11.569 2°44.112 17.9988 1.907032 14.019151 -1.697049
2008-05-21 07:23:53 51°11.566 2°44.082 18.0166 1.907032 14.017128 -1.697049
2008-05-21 07:23:58 51°11.561 2°44.053 18.0124 1.907032 14.017128 -1.697049
2008-05-21 07:24:03 51°11.557 2°44.024 18.0142 1.907031 14.015683 -1.697049
2008-05-21 07:24:08 51°11.553 2°43.995 18.0045 1.907031 14.014817 -1.697049
2008-05-21 07:24:13 51°11.549 2°43.966 18.0084 1.906928 14.014279 -1.697049
2008-05-21 07:24:18 51°11.545 2°43.937 18.0201 1.907031 14.016261 -1.697049
2008-05-21 07:24:23 51°11.541 2°43.908 18.0252 1.906928 14.018324 -1.697049
2008-05-21 07:24:28 51°11.536 2°43.879 18.0068 1.906928 14.018324 -1.697049
2008-05-21 07:24:33 51°11.532 2°43.85 18.0119 1.906928 14.01948 -1.697049
2008-05-21 07:24:39 51°11.528 2°43.815 18.0228 1.906928 14.026422 -1.697049
2008-05-21 07:24:43 51°11.524 2°43.792 18.0199 1.906825 14.026173 -1.697049
2008-05-21 07:24:48 51°11.52 2°43.763 18.0238 1.906928 14.029027 -1.697049
2008-05-21 07:24:53 51°11.516 2°43.734 18.0209 1.906825 14.0282 -1.697049
2008-05-21 07:24:58 51°11.512 2°43.705 18.0305 1.906825 14.0282 -1.697049
2008-05-21 07:25:03 51°11.508 2°43.677 18.0216 1.906928 14.026711 -1.697049
2008-05-21 07:25:08 51°11.504 2°43.647 18.026 1.906825 14.025305 -1.697049
2008-05-21 07:25:13 51°11.5 2°43.618 18.032 1.906825 14.021834 -1.697049
2008-05-21 07:25:18 51°11.495 2°43.589 18.0087 1.906722 14.018115 -1.697049
2008-05-21 07:25:23 51°11.491 2°43.561 18.031 1.906619 14.016132 -1.697049
2008-05-21 07:25:28 51°11.487 2°43.532 18.0073 1.906619 14.016132 -1.697049
2008-05-21 07:25:33 51°11.484 2°43.503 18.0295 1.906722 14.018693 -1.697049
2008-05-21 07:25:38 51°11.48 2°43.473 18.0221 1.906825 14.021544 -1.697049
2008-05-21 07:25:43 51°11.476 2°43.444 18.0269 1.906722 14.021585 -1.697049
2008-05-21 07:25:48 51°11.472 2°43.416 18.0363 1.906722 14.020139 -1.697049
2008-05-21 07:25:53 51°11.468 2°43.387 18.0193 1.906619 14.019022 -1.697049
2008-05-21 07:25:58 51°11.464 2°43.358 18.0336 1.906619 14.019022 -1.697049
2008-05-21 07:26:03 51°11.459 2°43.328 18.0226 1.906619 14.017577 -1.697049
2008-05-21 07:26:08 51°11.456 2°43.299 18.0381 1.906515 14.017906 -1.662225
2008-05-21 07:26:13 51°11.451 2°43.27 18.0223 1.906515 14.019063 -1.697049
2008-05-21 07:26:19 51°11.447 2°43.236 18.0457 1.906515 14.01993 -1.697049
2008-05-21 07:26:23 51°11.443 2°43.213 18.0092 1.906412 14.022285 -1.697049
2008-05-21 07:26:28 51°11.44 2°43.184 18.0406 1.906412 14.022285 -1.697049
2008-05-21 07:26:33 51°11.435 2°43.156 18.0108 1.906619 14.02915 -1.697049
2008-05-21 07:26:38 51°11.431 2°43.126 18.0447 1.906516 14.036435 -1.697049
2008-05-21 07:26:43 51°11.427 2°43.098 18.0226 1.906619 14.043936 -1.697049
2008-05-21 07:26:48 51°11.423 2°43.069 18.0359 1.906516 14.042817 -1.697049
2008-05-21 07:26:53 51°11.419 2°43.041 18.0442 1.906619 14.043356 -1.697049
2008-05-21 07:26:58 51°11.415 2°43.012 18.0453 1.906619 14.043356 -1.697049
2008-05-21 07:27:03 51°11.41 2°42.984 18.0509 1.906412 14.037057 -1.662225
2008-05-21 07:27:08 51°11.405 2°42.955 18.0524 1.906309 14.036228 -1.697049
2008-05-21 07:27:13 51°11.4 2°42.927 18.0518 1.906412 14.035317 -1.697049
2008-05-21 07:27:18 51°11.393 2°42.899 18.0551 1.906309 14.037679 -1.697049
2008-05-21 07:27:23 51°11.387 2°42.871 18.0564 1.906412 14.039377 -1.697049
2008-05-21 07:27:28 51°11.379 2°42.844 18.0411 1.906412 14.039377 -1.697049
2008-05-21 07:27:33 51°11.373 2°42.816 18.066 1.906206 14.038881 -1.697049
2008-05-21 07:27:38 51°11.364 2°42.789 18.0434 1.906206 14.03859 -1.697049
2008-05-21 07:27:43 51°11.357 2°42.761 18.071 1.906412 14.037057 -1.697049
2008-05-21 07:27:48 51°11.348 2°42.735 18.0514 1.906103 14.035732 -1.697049
2008-05-21 07:27:53 51°11.34 2°42.709 18.048 1.906103 14.037182 -1.697049
2008-05-21 07:27:58 51°11.331 2°42.683 18.0532 1.906103 14.037182 -1.697049
2008-05-21 07:28:03 51°11.32 2°42.658 18.0227 1.905999 14.035193 -1.697049
2008-05-21 07:28:08 51°11.311 2°42.632 18.066 1.906103 14.037762 -1.697049
2008-05-21 07:28:13 51°11.3 2°42.608 18.0553 1.905793 14.034116 -1.697049
2008-05-21 07:28:18 51°11.29 2°42.583 18.067 1.905896 14.036685 -1.697049
2008-05-21 07:28:23 51°11.279 2°42.559 18.0514 1.905896 14.036975 -1.662225
2008-05-21 07:28:28 51°11.268 2°42.535 18.0693 1.905896 14.036975 -1.662225
2008-05-21 07:28:33 51°11.255 2°42.512 18.0364 1.905793 14.037597 -1.697049
2008-05-21 07:28:39 51°11.242 2°42.482 18.0742 1.905896 14.041618 -1.697049
2008-05-21 07:28:43 51°11.232 2°42.465 18.0455 1.905793 14.036727 -1.697049
2008-05-21 07:28:48 51°11.221 2°42.44 18.0496 1.90569 14.036478 -1.697049
2008-05-21 07:28:53 51°11.209 2°42.417 18.0625 1.90569 14.033288 -1.697049
2008-05-21 07:28:59 51°11.195 2°42.389 18.045 1.90569 14.033288 -1.697049
2008-05-21 07:29:03 51°11.187 2°42.369 18.0606 1.90569 14.034448 -1.697049
2008-05-21 07:29:08 51°11.175 2°42.346 18.035 1.90569 14.035318 -1.697049
2008-05-21 07:29:13 51°11.164 2°42.321 18.0654 1.90569 14.037349 -1.697049
2008-05-21 07:29:19 51°11.151 2°42.292 18.0334 1.905586 14.03623 -1.697049
2008-05-21 07:29:23 51°11.143 2°42.273 18.0543 1.90569 14.041993 -1.697049
2008-05-21 07:29:28 51°11.134 2°42.251 18.0514 1.90569 14.041993 -1.697049
2008-05-21 07:29:33 51°11.126 2°42.229 18.0659 1.90569 14.042283 -1.697049
2008-05-21 07:29:38 51°11.118 2°42.209 18.0665 1.905587 14.041454 -1.697049
2008-05-21 07:29:43 51°11.112 2°42.189 18.064 1.905587 14.041164 -1.697049
2008-05-21 07:29:48 51°11.106 2°42.171 18.0676 1.905587 14.041164 -1.697049
2008-05-21 07:29:53 51°11.101 2°42.153 18.0715 1.905483 14.040915 -1.697049
2008-05-21 07:29:58 51°11.097 2°42.136 18.0677 1.905483 14.040915 -1.697049
2008-05-21 07:30:03 51°11.094 2°42.12 18.0715 1.905483 14.040915 -1.697049
2008-05-21 07:30:08 51°11.091 2°42.105 18.0764 1.905483 14.042077 -1.697049
2008-05-21 07:30:13 51°11.089 2°42.091 18.0712 1.905483 14.04411 -1.697049
2008-05-21 07:30:18 51°11.088 2°42.079 18.0718 1.905483 14.045272 -1.697049
2008-05-21 07:30:23 51°11.086 2°42.067 18.0787 1.905587 14.047554 -1.697049
2008-05-21 07:30:28 51°11.085 2°42.057 18.0825 1.905587 14.047554 -1.697049
2008-05-21 07:30:33 51°11.084 2°42.048 18.0843 1.90538 14.048511 -1.697049
2008-05-21 07:30:38 51°11.083 2°42.039 18.086 1.905483 14.04905 -1.697049
2008-05-21 07:30:43 51°11.082 2°42.032 18.0829 1.905483 14.047306 -1.697049
2008-05-21 07:30:48 51°11.081 2°42.025 18.0836 1.905277 14.042452 -1.697049
2008-05-21 07:30:53 51°11.079 2°42.018 18.0702 1.90538 14.042119 -1.697049
2008-05-21 07:30:58 51°11.078 2°42.013 18.0737 1.90538 14.042119 -1.697049
2008-05-21 07:31:03 51°11.077 2°42.008 18.0742 1.905277 14.035774 -1.697049
2008-05-21 07:31:08 51°11.077 2°42.003 18.0803 1.90507 14.027158 -1.697049
2008-05-21 07:31:13 51°11.076 2°41.999 18.0857 1.905173 14.022192 -1.697049
2008-05-21 07:31:19 51°11.075 2°41.995 18.0858 1.90507 14.020496 -1.697049
2008-05-21 07:31:23 51°11.074 2°41.993 18.0845 1.904967 14.020536 -1.697049
2008-05-21 07:31:28 51°11.074 2°41.991 18.0853 1.904967 14.020536 -1.697049
2008-05-21 07:31:33 51°11.073 2°41.988 18.0864 1.904967 14.020826 -1.697049
2008-05-21 07:31:39 51°11.073 2°41.986 18.0921 1.904967 14.021694 -1.697049
2008-05-21 07:31:43 51°11.073 2°41.985 18.0868 1.904967 14.024591 -1.697049
2008-05-21 07:31:48 51°11.072 2°41.983 18.0885 1.904967 14.027489 -1.697049
2008-05-21 07:31:53 51°11.072 2°41.981 18.0867 1.904967 14.031258 -1.697049
2008-05-21 07:31:58 51°11.072 2°41.979 18.0872 1.904967 14.031258 -1.697049
2008-05-21 07:32:03 51°11.071 2°41.977 18.0899 1.904864 14.03449 -1.697049
2008-05-21 07:32:08 51°11.071 2°41.975 18.0957 1.904967 14.039093 -1.697049
2008-05-21 07:32:13 51°11.07 2°41.972 18.0889 1.904967 14.042578 -1.697049
2008-05-21 07:32:18 51°11.07 2°41.97 18.0843 1.90507 14.046314 -1.697049
2008-05-21 07:32:23 51°11.07 2°41.968 18.0933 1.904864 14.045236 -1.697049
2008-05-21 07:32:29 51°11.069 2°41.965 18.0942 1.904864 14.045236 -1.697049
2008-05-21 07:32:33 51°11.068 2°41.963 18.0873 1.904864 14.044655 -1.697049
2008-05-21 07:32:38 51°11.068 2°41.961 18.0948 1.904967 14.04374 -1.697049
2008-05-21 07:32:43 51°11.067 2°41.958 18.1002 1.904864 14.042039 -1.662225
2008-05-21 07:32:49 51°11.067 2°41.955 18.0959 1.904761 14.041791 -1.697049
2008-05-21 07:32:53 51°11.066 2°41.954 18.0902 1.904761 14.043244 -1.697049
2008-05-21 07:32:58 51°11.066 2°41.951 18.0984 1.904761 14.043244 -1.697049
2008-05-21 07:33:03 51°11.065 2°41.949 18.0976 1.904761 14.043825 -1.697049